| time (UTC) | temp F | wind direction | speed MPH | gust MPH | rain 1hr in | rain 24hr in | rain mn in | humidity % | barometer mb |
| 20260505235403 | 81 | 109 | 6.0 | 16.0 | 0.00 | 0.00 | 0.00 | 80 | 1004.8 |
| 20260505235305 | 81 | 94 | 6.0 | 16.0 | 0.00 | 0.00 | 0.00 | 80 | 1004.9 |
| 20260505235204 | 81 | 87 | 6.0 | 16.0 | 0.00 | 0.00 | 0.00 | 80 | 1004.8 |
| 20260505235102 | 81 | 145 | 6.0 | 16.0 | 0.00 | 0.00 | 0.00 | 79 | 1004.8 |
| 20260505235003 | 81 | 71 | 6.0 | 16.0 | 0.00 | 0.00 | 0.00 | 79 | 1004.7 |
| 20260505234902 | 81 | 111 | 6.0 | 16.0 | 0.00 | 0.00 | 0.00 | 79 | 1004.8 |
| 20260505234802 | 81 | 0 | 7.0 | 16.0 | 0.00 | 0.00 | 0.00 | 79 | 1004.8 |
| 20260505234702 | 81 | 80 | 8.0 | 16.0 | 0.00 | 0.00 | 0.00 | 79 | 1004.8 |
| 20260505234604 | 82 | 116 | 8.0 | 16.0 | 0.00 | 0.00 | 0.00 | 79 | 1004.8 |
| 20260505234504 | 82 | 118 | 6.0 | 14.0 | 0.00 | 0.00 | 0.00 | 79 | 1004.8 |
| 20260505234402 | 82 | 102 | 6.0 | 13.0 | 0.00 | 0.00 | 0.00 | 79 | 1004.8 |
| 20260505234303 | 82 | 76 | 7.0 | 13.0 | 0.00 | 0.00 | 0.00 | 79 | 1004.8 |
| 20260505234203 | 82 | 78 | 8.0 | 13.0 | 0.00 | 0.00 | 0.00 | 79 | 1004.8 |
| 20260505234104 | 82 | 110 | 6.0 | 13.0 | 0.00 | 0.00 | 0.00 | 79 | 1004.9 |
| 20260505234002 | 82 | 120 | 4.0 | 13.0 | 0.00 | 0.00 | 0.00 | 80 | 1004.9 |
| 20260505233903 | 82 | 86 | 4.0 | 13.0 | 0.00 | 0.00 | 0.00 | 80 | 1004.9 |
| 20260505233802 | 82 | 0 | 6.0 | 14.0 | 0.00 | 0.00 | 0.00 | 80 | 1004.9 |
| 20260505233702 | 82 | 113 | 7.0 | 14.0 | 0.00 | 0.00 | 0.00 | 79 | 1004.9 |
| 20260505233604 | 82 | 111 | 7.0 | 14.0 | 0.00 | 0.00 | 0.00 | 79 | 1005.0 |
| 20260505233504 | 82 | 90 | 9.0 | 14.0 | 0.00 | 0.00 | 0.00 | 79 | 1004.9 |
| 20260505233402 | 82 | 137 | 8.0 | 14.0 | 0.00 | 0.00 | 0.00 | 79 | 1004.9 |
| 20260505233302 | 82 | 96 | 6.0 | 14.0 | 0.00 | 0.00 | 0.00 | 80 | 1004.9 |
| 20260505233204 | 82 | 114 | 6.0 | 14.0 | 0.00 | 0.00 | 0.00 | 79 | 1004.9 |
| 20260505233102 | 82 | 93 | 5.0 | 14.0 | 0.00 | 0.00 | 0.00 | 80 | 1004.9 |
| 20260505233002 | 82 | 111 | 4.0 | 14.0 | 0.00 | 0.00 | 0.00 | 80 | 1004.9 |
| 20260505232903 | 82 | 80 | 5.0 | 15.0 | 0.00 | 0.00 | 0.00 | 80 | 1004.9 |
| 20260505232802 | 82 | 68 | 6.0 | 15.0 | 0.00 | 0.00 | 0.00 | 80 | 1004.9 |
| 20260505232702 | 82 | 80 | 5.0 | 19.0 | 0.00 | 0.00 | 0.00 | 80 | 1005.0 |
| 20260505232602 | 82 | 123 | 4.0 | 19.0 | 0.00 | 0.00 | 0.00 | 80 | 1004.9 |
| 20260505232504 | 82 | 93 | 5.0 | 19.0 | 0.00 | 0.00 | 0.00 | 80 | 1004.8 |
| 20260505232402 | 82 | 71 | 5.0 | 19.0 | 0.00 | 0.00 | 0.00 | 79 | 1004.9 |
| 20260505232305 | 82 | 109 | 4.0 | 19.0 | 0.00 | 0.00 | 0.00 | 79 | 1004.9 |
| 20260505232203 | 82 | 93 | 5.0 | 19.0 | 0.00 | 0.00 | 0.00 | 79 | 1004.9 |
| 20260505232102 | 82 | 117 | 7.0 | 19.0 | 0.00 | 0.00 | 0.00 | 79 | 1004.9 |
| 20260505232002 | 82 | 121 | 8.0 | 19.0 | 0.00 | 0.00 | 0.00 | 79 | 1004.9 |
| 20260505231903 | 82 | 118 | 10.0 | 19.0 | 0.00 | 0.00 | 0.00 | 79 | 1004.9 |
| 20260505231802 | 82 | 120 | 9.0 | 19.0 | 0.00 | 0.00 | 0.00 | 79 | 1005.0 |
| 20260505231702 | 82 | 128 | 6.0 | 14.0 | 0.00 | 0.00 | 0.00 | 79 | 1005.0 |
| 20260505231603 | 82 | 107 | 6.0 | 14.0 | 0.00 | 0.00 | 0.00 | 79 | 1005.0 |
| 20260505231504 | 82 | 63 | 6.0 | 14.0 | 0.00 | 0.00 | 0.00 | 79 | 1005.0 |
| 20260505231402 | 82 | 87 | 6.0 | 14.0 | 0.00 | 0.00 | 0.00 | 79 | 1005.0 |
| 20260505231304 | 82 | 107 | 7.0 | 14.0 | 0.00 | 0.00 | 0.00 | 79 | 1005.0 |
| 20260505231203 | 82 | 134 | 6.0 | 13.0 | 0.00 | 0.00 | 0.00 | 79 | 1005.0 |
| 20260505231102 | 82 | 110 | 5.0 | 13.0 | 0.00 | 0.00 | 0.00 | 79 | 1004.9 |
| 20260505231002 | 82 | 85 | 4.0 | 13.0 | 0.00 | 0.00 | 0.00 | 79 | 1005.0 |
| 20260505230902 | 82 | 99 | 4.0 | 13.0 | 0.00 | 0.00 | 0.00 | 79 | 1005.0 |
| 20260505230803 | 82 | 79 | 6.0 | 13.0 | 0.00 | 0.00 | 0.00 | 79 | 1005.0 |
| 20260505230702 | 82 | 85 | 6.0 | 13.0 | 0.00 | 0.00 | 0.00 | 79 | 1005.0 |
| 20260505230602 | 82 | 138 | 5.0 | 13.0 | 0.00 | 0.00 | 0.00 | 79 | 1005.0 |
| 20260505230504 | 82 | 73 | 5.0 | 14.0 | 0.00 | 0.00 | 0.00 | 79 | 1004.9 |
| 20260505230403 | 82 | 48 | 6.0 | 14.0 | 0.00 | 0.00 | 0.00 | 79 | 1004.9 |
| 20260505230303 | 82 | 104 | 6.0 | 14.0 | 0.00 | 0.00 | 0.00 | 79 | 1004.9 |
| 20260505230203 | 82 | 124 | 6.0 | 14.0 | 0.00 | 0.00 | 0.00 | 79 | 1004.9 |
| 20260505230003 | 82 | 0 | 6.0 | 15.0 | 0.00 | 0.00 | 0.00 | 79 | 1005.0 |
| 20260505225902 | 82 | 94 | 6.0 | 15.0 | 0.00 | 0.00 | 0.00 | 79 | 1004.9 |
| 20260505225803 | 82 | 87 | 6.0 | 15.0 | 0.00 | 0.00 | 0.00 | 79 | 1004.9 |
| 20260505225703 | 82 | 80 | 8.0 | 15.0 | 0.00 | 0.00 | 0.00 | 79 | 1004.9 |
| 20260505225602 | 82 | 94 | 9.0 | 15.0 | 0.00 | 0.00 | 0.00 | 79 | 1004.9 |
| 20260505225504 | 82 | 130 | 8.0 | 15.0 | 0.00 | 0.00 | 0.00 | 79 | 1004.9 |
| 20260505225403 | 82 | 123 | 7.0 | 15.0 | 0.00 | 0.00 | 0.00 | 79 | 1004.8 |
| 20260505225305 | 82 | 120 | 8.0 | 15.0 | 0.00 | 0.00 | 0.00 | 79 | 1004.8 |
| 20260505225202 | 82 | 73 | 9.0 | 15.0 | 0.00 | 0.00 | 0.00 | 79 | 1004.8 |
| 20260505225103 | 82 | 125 | 7.0 | 15.0 | 0.00 | 0.00 | 0.00 | 79 | 1004.8 |
| 20260505225002 | 82 | 121 | 7.0 | 15.0 | 0.00 | 0.00 | 0.00 | 79 | 1004.7 |
| 20260505224902 | 83 | 73 | 9.0 | 15.0 | 0.00 | 0.00 | 0.00 | 78 | 1004.7 |
| 20260505224804 | 83 | 210 | 9.0 | 15.0 | 0.00 | 0.00 | 0.00 | 78 | 1004.7 |
| 20260505224702 | 83 | 144 | 8.0 | 14.0 | 0.00 | 0.00 | 0.00 | 78 | 1004.7 |
| 20260505224602 | 83 | 157 | 7.0 | 13.0 | 0.00 | 0.00 | 0.00 | 78 | 1004.7 |
| 20260505224504 | 83 | 147 | 6.0 | 13.0 | 0.00 | 0.00 | 0.00 | 78 | 1004.7 |
| 20260505224402 | 83 | 164 | 7.0 | 13.0 | 0.00 | 0.00 | 0.00 | 78 | 1004.8 |
| 20260505224302 | 83 | 121 | 6.0 | 13.0 | 0.00 | 0.00 | 0.00 | 77 | 1004.9 |
| 20260505224159 | 83 | 154 | 4.0 | 12.0 | 0.00 | 0.00 | 0.00 | 77 | 1004.8 |
| 20260505224058 | 83 | 138 | 4.0 | 12.0 | 0.00 | 0.00 | 0.00 | 77 | 1004.9 |
| 20260505223956 | 83 | 157 | 5.0 | 12.0 | 0.00 | 0.00 | 0.00 | 77 | 1004.9 |
| 20260505223854 | 83 | 142 | 6.0 | 12.0 | 0.00 | 0.00 | 0.00 | 77 | 1004.9 |
| 20260505223753 | 83 | 109 | 5.0 | 12.0 | 0.00 | 0.00 | 0.00 | 77 | 1004.9 |
| 20260505223652 | 83 | 133 | 3.0 | 13.0 | 0.00 | 0.00 | 0.00 | 77 | 1004.9 |
| 20260505223550 | 83 | 180 | 5.0 | 13.0 | 0.00 | 0.00 | 0.00 | 77 | 1004.8 |
| 20260505223448 | 83 | 214 | 5.0 | 13.0 | 0.00 | 0.00 | 0.00 | 77 | 1004.9 |
| 20260505223348 | 83 | 164 | 6.0 | 13.0 | 0.00 | 0.00 | 0.00 | 77 | 1004.9 |
| 20260505223246 | 83 | 141 | 8.0 | 13.0 | 0.00 | 0.00 | 0.00 | 77 | 1004.8 |
| 20260505223145 | 83 | 196 | 8.0 | 13.0 | 0.00 | 0.00 | 0.00 | 77 | 1004.9 |
| 20260505223044 | 83 | 188 | 6.0 | 15.0 | 0.00 | 0.00 | 0.00 | 77 | 1005.0 |
| 20260505222942 | 83 | 193 | 6.0 | 15.0 | 0.00 | 0.00 | 0.00 | 78 | 1004.9 |
| 20260505222839 | 83 | 168 | 7.0 | 15.0 | 0.00 | 0.00 | 0.00 | 77 | 1004.9 |
| 20260505222739 | 83 | 164 | 6.0 | 15.0 | 0.00 | 0.00 | 0.00 | 78 | 1004.9 |
| 20260505222638 | 83 | 192 | 7.0 | 15.0 | 0.00 | 0.00 | 0.00 | 77 | 1004.9 |
| 20260505222536 | 83 | 158 | 7.0 | 15.0 | 0.00 | 0.00 | 0.00 | 77 | 1004.9 |
| 20260505222430 | 83 | 190 | 6.0 | 15.0 | 0.00 | 0.00 | 0.00 | 77 | 1004.9 |
| 20260505222330 | 83 | 25 | 6.0 | 15.0 | 0.00 | 0.00 | 0.00 | 77 | 1005.0 |
| 20260505222231 | 83 | 140 | 7.0 | 16.0 | 0.00 | 0.00 | 0.00 | 77 | 1005.0 |
| 20260505222131 | 83 | 214 | 7.0 | 16.0 | 0.00 | 0.00 | 0.00 | 77 | 1005.0 |
| 20260505222031 | 83 | 244 | 5.0 | 16.0 | 0.00 | 0.00 | 0.00 | 77 | 1005.0 |
| 20260505221932 | 83 | 231 | 5.0 | 16.0 | 0.00 | 0.00 | 0.00 | 77 | 1004.9 |
| 20260505221831 | 83 | 207 | 6.0 | 16.0 | 0.00 | 0.00 | 0.00 | 77 | 1005.0 |
| 20260505221731 | 83 | 185 | 7.0 | 16.0 | 0.00 | 0.00 | 0.00 | 76 | 1005.0 |
| 20260505221632 | 83 | 106 | 7.0 | 16.0 | 0.00 | 0.00 | 0.00 | 76 | 1004.9 |
| 20260505221531 | 83 | 189 | 6.0 | 16.0 | 0.00 | 0.00 | 0.00 | 76 | 1004.9 |
| 20260505221431 | 83 | 183 | 7.0 | 16.0 | 0.00 | 0.00 | 0.00 | 76 | 1005.0 |
| 20260505221332 | 83 | 165 | 9.0 | 16.0 | 0.00 | 0.00 | 0.00 | 76 | 1005.0 |
| 20260505221232 | 83 | 196 | 8.0 | 16.0 | 0.00 | 0.00 | 0.00 | 76 | 1005.0 |
| 20260505221130 | 83 | 161 | 9.0 | 16.0 | 0.00 | 0.00 | 0.00 | 76 | 1005.0 |
| 20260505221028 | 83 | 172 | 9.0 | 16.0 | 0.00 | 0.00 | 0.00 | 77 | 1005.0 |
| 20260505220927 | 83 | 182 | 6.0 | 15.0 | 0.00 | 0.00 | 0.00 | 77 | 1005.1 |
| 20260505220825 | 83 | 200 | 6.0 | 17.0 | 0.00 | 0.00 | 0.00 | 77 | 1005.0 |
| 20260505220723 | 83 | 155 | 6.0 | 17.0 | 0.00 | 0.00 | 0.00 | 77 | 1005.0 |
| 20260505220623 | 83 | 224 | 7.0 | 17.0 | 0.00 | 0.00 | 0.00 | 77 | 1005.0 |
| 20260505220520 | 83 | 109 | 8.0 | 17.0 | 0.00 | 0.00 | 0.00 | 77 | 1004.9 |
| 20260505220419 | 84 | 189 | 8.0 | 17.0 | 0.00 | 0.00 | 0.00 | 76 | 1005.0 |
| 20260505220317 | 84 | 165 | 8.0 | 17.0 | 0.00 | 0.00 | 0.00 | 76 | 1005.0 |
| 20260505220217 | 84 | 180 | 7.0 | 17.0 | 0.00 | 0.00 | 0.00 | 76 | 1005.0 |
| 20260505220116 | 84 | 157 | 9.0 | 17.0 | 0.00 | 0.00 | 0.00 | 76 | 1005.1 |
| 20260505220015 | 84 | 207 | 9.0 | 17.0 | 0.00 | 0.00 | 0.00 | 76 | 1005.1 |
| 20260505215915 | 84 | 173 | 6.0 | 17.0 | 0.00 | 0.00 | 0.00 | 77 | 1005.2 |
| 20260505215815 | 84 | 175 | 7.0 | 13.0 | 0.00 | 0.00 | 0.00 | 76 | 1005.2 |
| 20260505215715 | 84 | 190 | 7.0 | 13.0 | 0.00 | 0.00 | 0.00 | 76 | 1005.0 |
| 20260505215617 | 84 | 185 | 6.0 | 13.0 | 0.00 | 0.00 | 0.00 | 77 | 1005.1 |
| 20260505215514 | 84 | 210 | 6.0 | 13.0 | 0.00 | 0.00 | 0.00 | 77 | 1005.1 |
| 20260505215416 | 84 | 192 | 6.0 | 13.0 | 0.00 | 0.00 | 0.00 | 77 | 1005.1 |
| 20260505215315 | 84 | 141 | 7.0 | 15.0 | 0.00 | 0.00 | 0.00 | 77 | 1005.2 |
| 20260505215214 | 84 | 226 | 7.0 | 15.0 | 0.00 | 0.00 | 0.00 | 76 | 1005.1 |
| 20260505215116 | 84 | 274 | 7.0 | 18.0 | 0.00 | 0.00 | 0.00 | 77 | 1005.1 |
| 20260505215014 | 84 | 212 | 8.0 | 18.0 | 0.00 | 0.00 | 0.00 | 77 | 1005.1 |
| 20260505214915 | 84 | 202 | 6.0 | 18.0 | 0.00 | 0.00 | 0.00 | 77 | 1005.2 |
| 20260505214815 | 84 | 202 | 4.0 | 18.0 | 0.00 | 0.00 | 0.00 | 77 | 1005.2 |
| 20260505214715 | 84 | 214 | 7.0 | 18.0 | 0.00 | 0.00 | 0.00 | 77 | 1005.2 |
| 20260505214614 | 84 | 207 | 9.0 | 19.0 | 0.00 | 0.00 | 0.00 | 77 | 1005.2 |
| 20260505214514 | 84 | 203 | 9.0 | 19.0 | 0.00 | 0.00 | 0.00 | 77 | 1005.2 |
| 20260505214416 | 84 | 189 | 9.0 | 19.0 | 0.00 | 0.00 | 0.00 | 76 | 1005.2 |
| 20260505214313 | 84 | 197 | 9.0 | 19.0 | 0.00 | 0.00 | 0.00 | 77 | 1005.3 |
| 20260505214212 | 84 | 204 | 7.0 | 19.0 | 0.00 | 0.00 | 0.00 | 76 | 1005.2 |
| 20260505214112 | 84 | 204 | 7.0 | 19.0 | 0.00 | 0.00 | 0.00 | 77 | 1005.3 |
| 20260505214005 | 84 | 180 | 7.0 | 19.0 | 0.00 | 0.00 | 0.00 | 76 | 1005.3 |
| 20260505213903 | 84 | 235 | 9.0 | 19.0 | 0.00 | 0.00 | 0.00 | 76 | 1005.3 |
| 20260505213802 | 84 | 240 | 11.0 | 19.0 | 0.00 | 0.00 | 0.00 | 76 | 1005.3 |
| 20260505213701 | 85 | 202 | 10.0 | 17.0 | 0.00 | 0.00 | 0.00 | 76 | 1005.3 |
| 20260505213603 | 85 | 161 | 6.0 | 15.0 | 0.00 | 0.00 | 0.00 | 75 | 1005.4 |
| 20260505213502 | 85 | 206 | 5.0 | 14.0 | 0.00 | 0.00 | 0.00 | 75 | 1005.3 |
| 20260505213402 | 85 | 173 | 6.0 | 14.0 | 0.00 | 0.00 | 0.00 | 75 | 1005.3 |
| 20260505213305 | 85 | 237 | 6.0 | 14.0 | 0.00 | 0.00 | 0.00 | 75 | 1005.3 |
| 20260505213203 | 85 | 245 | 6.0 | 17.0 | 0.00 | 0.00 | 0.00 | 75 | 1005.3 |
| 20260505213102 | 85 | 224 | 5.0 | 17.0 | 0.00 | 0.00 | 0.00 | 75 | 1005.3 |
| 20260505213002 | 85 | 179 | 4.0 | 17.0 | 0.00 | 0.00 | 0.00 | 75 | 1005.2 |
| 20260505212904 | 85 | 175 | 5.0 | 17.0 | 0.00 | 0.00 | 0.00 | 76 | 1005.3 |
| 20260505212802 | 85 | 196 | 6.0 | 17.0 | 0.00 | 0.00 | 0.00 | 75 | 1005.3 |
| 20260505212703 | 85 | 203 | 7.0 | 17.0 | 0.00 | 0.00 | 0.00 | 76 | 1005.3 |
| 20260505212603 | 84 | 203 | 6.0 | 17.0 | 0.00 | 0.00 | 0.00 | 75 | 1005.3 |
| 20260505212502 | 84 | 221 | 7.0 | 17.0 | 0.00 | 0.00 | 0.00 | 75 | 1005.4 |
| 20260505212402 | 84 | 178 | 10.0 | 17.0 | 0.00 | 0.00 | 0.00 | 75 | 1005.4 |
| 20260505212306 | 84 | 200 | 9.0 | 17.0 | 0.00 | 0.00 | 0.00 | 76 | 1005.4 |
| 20260505212202 | 84 | 176 | 9.0 | 16.0 | 0.00 | 0.00 | 0.00 | 76 | 1005.5 |
| 20260505212102 | 84 | 197 | 10.0 | 16.0 | 0.00 | 0.00 | 0.00 | 76 | 1005.5 |
| 20260505212002 | 84 | 195 | 9.0 | 16.0 | 0.00 | 0.00 | 0.00 | 76 | 1005.5 |
| 20260505211905 | 84 | 144 | 9.0 | 16.0 | 0.00 | 0.00 | 0.00 | 76 | 1005.6 |
| 20260505211802 | 84 | 183 | 9.0 | 16.0 | 0.00 | 0.00 | 0.00 | 76 | 1005.6 |
| 20260505211701 | 84 | 217 | 9.0 | 16.0 | 0.00 | 0.00 | 0.00 | 76 | 1005.5 |
| 20260505211604 | 84 | 213 | 10.0 | 16.0 | 0.00 | 0.00 | 0.00 | 76 | 1005.5 |
| 20260505211503 | 84 | 200 | 9.0 | 16.0 | 0.00 | 0.00 | 0.00 | 76 | 1005.5 |
| 20260505211402 | 84 | 164 | 8.0 | 16.0 | 0.00 | 0.00 | 0.00 | 76 | 1005.4 |
| 20260505211302 | 84 | 193 | 8.0 | 18.0 | 0.00 | 0.00 | 0.00 | 76 | 1005.6 |
| 20260505211203 | 84 | 166 | 8.0 | 18.0 | 0.00 | 0.00 | 0.00 | 77 | 1005.6 |
| 20260505211104 | 84 | 169 | 8.0 | 18.0 | 0.00 | 0.00 | 0.00 | 77 | 1005.6 |
| 20260505211004 | 84 | 166 | 7.0 | 18.0 | 0.00 | 0.00 | 0.00 | 77 | 1005.6 |
| 20260505210904 | 84 | 243 | 6.0 | 18.0 | 0.00 | 0.00 | 0.00 | 78 | 1005.7 |
| 20260505210803 | 83 | 149 | 9.0 | 18.0 | 0.00 | 0.00 | 0.00 | 77 | 1005.6 |
| 20260505210703 | 83 | 210 | 9.0 | 18.0 | 0.00 | 0.00 | 0.00 | 77 | 1005.6 |
| 20260505210602 | 83 | 195 | 8.0 | 19.0 | 0.00 | 0.00 | 0.00 | 77 | 1005.7 |
| 20260505210504 | 83 | 219 | 10.0 | 19.0 | 0.00 | 0.00 | 0.00 | 77 | 1005.7 |
| 20260505210403 | 83 | 235 | 9.0 | 19.0 | 0.00 | 0.00 | 0.00 | 77 | 1005.7 |
| 20260505210302 | 83 | 237 | 7.0 | 19.0 | 0.00 | 0.00 | 0.00 | 78 | 1005.7 |
| 20260505210203 | 83 | 204 | 6.0 | 19.0 | 0.00 | 0.00 | 0.00 | 78 | 1005.8 |
| 20260505210003 | 83 | 196 | 6.0 | 19.0 | 0.00 | 0.00 | 0.00 | 77 | 1005.8 |
| 20260505205839 | 83 | 131 | 9.0 | 19.0 | 0.00 | 0.00 | 0.00 | 77 | 1005.8 |
| 20260505205737 | 83 | 227 | 10.0 | 19.0 | 0.00 | 0.00 | 0.00 | 77 | 1005.8 |
| 20260505205635 | 84 | 168 | 9.0 | 19.0 | 0.00 | 0.00 | 0.00 | 77 | 1005.9 |
| 20260505205534 | 84 | 169 | 8.0 | 14.0 | 0.00 | 0.00 | 0.00 | 77 | 1005.8 |
| 20260505205431 | 84 | 196 | 6.0 | 15.0 | 0.00 | 0.00 | 0.00 | 77 | 1005.9 |
| 20260505205330 | 84 | 142 | 5.0 | 15.0 | 0.00 | 0.00 | 0.00 | 76 | 1005.8 |
| 20260505205231 | 84 | 158 | 6.0 | 15.0 | 0.00 | 0.00 | 0.00 | 76 | 1005.9 |
| 20260505205132 | 84 | 120 | 6.0 | 15.0 | 0.00 | 0.00 | 0.00 | 76 | 1005.8 |
| 20260505205031 | 84 | 172 | 6.0 | 15.0 | 0.00 | 0.00 | 0.00 | 76 | 1005.9 |
| 20260505204932 | 84 | 158 | 5.0 | 15.0 | 0.00 | 0.00 | 0.00 | 76 | 1005.9 |
| 20260505204832 | 84 | 199 | 5.0 | 15.0 | 0.00 | 0.00 | 0.00 | 76 | 1005.8 |
| 20260505204732 | 84 | 171 | 6.0 | 15.0 | 0.00 | 0.00 | 0.00 | 76 | 1005.9 |
| 20260505204630 | 84 | 204 | 8.0 | 15.0 | 0.00 | 0.00 | 0.00 | 75 | 1006.0 |
| 20260505204529 | 85 | 134 | 6.0 | 15.0 | 0.00 | 0.00 | 0.00 | 76 | 1006.0 |
| 20260505204427 | 85 | 217 | 5.0 | 15.0 | 0.00 | 0.00 | 0.00 | 75 | 1005.9 |
| 20260505204327 | 85 | 169 | 8.0 | 15.0 | 0.00 | 0.00 | 0.00 | 75 | 1005.9 |
| 20260505204224 | 85 | 220 | 11.0 | 19.0 | 0.00 | 0.00 | 0.00 | 74 | 1005.9 |
| 20260505204122 | 85 | 213 | 9.0 | 19.0 | 0.00 | 0.00 | 0.00 | 74 | 1005.9 |
| 20260505204019 | 85 | 290 | 8.0 | 19.0 | 0.00 | 0.00 | 0.00 | 74 | 1005.9 |
| 20260505203914 | 85 | 289 | 7.0 | 19.0 | 0.00 | 0.00 | 0.00 | 74 | 1005.7 |
| 20260505203814 | 85 | 213 | 7.0 | 19.0 | 0.00 | 0.00 | 0.00 | 74 | 1005.8 |
| 20260505203714 | 85 | 155 | 11.0 | 19.0 | 0.00 | 0.00 | 0.00 | 74 | 1005.8 |
| 20260505203613 | 85 | 155 | 11.0 | 19.0 | 0.00 | 0.00 | 0.00 | 74 | 1005.8 |
| 20260505203514 | 85 | 155 | 11.0 | 19.0 | 0.00 | 0.00 | 0.00 | 74 | 1005.8 |
| 20260505203413 | 85 | 179 | 12.0 | 20.0 | 0.00 | 0.00 | 0.00 | 74 | 1005.9 |
| 20260505203312 | 85 | 203 | 11.0 | 20.0 | 0.00 | 0.00 | 0.00 | 74 | 1005.9 |
| 20260505203212 | 85 | 178 | 10.0 | 20.0 | 0.00 | 0.00 | 0.00 | 74 | 1006.0 |
| 20260505203113 | 85 | 182 | 10.0 | 20.0 | 0.00 | 0.00 | 0.00 | 73 | 1006.0 |
| 20260505203013 | 85 | 190 | 9.0 | 20.0 | 0.00 | 0.00 | 0.00 | 73 | 1006.0 |
| 20260505202913 | 85 | 204 | 9.0 | 20.0 | 0.00 | 0.00 | 0.00 | 73 | 1006.0 |
| 20260505202814 | 85 | 178 | 8.0 | 20.0 | 0.00 | 0.00 | 0.00 | 74 | 1006.0 |
| 20260505202714 | 85 | 221 | 9.0 | 20.0 | 0.00 | 0.00 | 0.00 | 74 | 1006.0 |
| 20260505202614 | 85 | 217 | 11.0 | 20.0 | 0.00 | 0.00 | 0.00 | 74 | 1006.0 |
| 20260505202513 | 85 | 209 | 12.0 | 20.0 | 0.00 | 0.00 | 0.00 | 73 | 1006.1 |
| 20260505202412 | 85 | 145 | 9.0 | 17.0 | 0.00 | 0.00 | 0.00 | 73 | 1006.1 |
| 20260505202313 | 85 | 171 | 7.0 | 17.0 | 0.00 | 0.00 | 0.00 | 73 | 1006.1 |
| 20260505202212 | 85 | 182 | 8.0 | 17.0 | 0.00 | 0.00 | 0.00 | 73 | 1006.1 |
| 20260505202113 | 86 | 124 | 10.0 | 17.0 | 0.00 | 0.00 | 0.00 | 73 | 1006.1 |
| 20260505202012 | 85 | 186 | 11.0 | 17.0 | 0.00 | 0.00 | 0.00 | 73 | 1006.1 |
| 20260505201912 | 85 | 241 | 9.0 | 17.0 | 0.00 | 0.00 | 0.00 | 74 | 1006.1 |
| 20260505201812 | 85 | 204 | 7.0 | 13.0 | 0.00 | 0.00 | 0.00 | 75 | 1006.1 |
| 20260505201712 | 85 | 186 | 6.0 | 14.0 | 0.00 | 0.00 | 0.00 | 74 | 1006.2 |
| 20260505201612 | 85 | 204 | 6.0 | 14.0 | 0.00 | 0.00 | 0.00 | 75 | 1006.3 |
| 20260505201512 | 85 | 162 | 6.0 | 14.0 | 0.00 | 0.00 | 0.00 | 75 | 1006.2 |
| 20260505201413 | 85 | 217 | 8.0 | 14.0 | 0.00 | 0.00 | 0.00 | 75 | 1006.2 |
| 20260505201312 | 85 | 252 | 8.0 | 14.0 | 0.00 | 0.00 | 0.00 | 75 | 1006.3 |
| 20260505201213 | 85 | 250 | 7.0 | 14.0 | 0.00 | 0.00 | 0.00 | 75 | 1006.2 |
| 20260505201113 | 85 | 179 | 7.0 | 16.0 | 0.00 | 0.00 | 0.00 | 75 | 1006.3 |
| 20260505201012 | 85 | 193 | 8.0 | 16.0 | 0.00 | 0.00 | 0.00 | 75 | 1006.3 |
| 20260505200914 | 85 | 247 | 9.0 | 19.0 | 0.00 | 0.00 | 0.00 | 75 | 1006.3 |
| 20260505200811 | 85 | 206 | 9.0 | 19.0 | 0.00 | 0.00 | 0.00 | 75 | 1006.4 |
| 20260505200713 | 85 | 217 | 9.0 | 19.0 | 0.00 | 0.00 | 0.00 | 75 | 1006.3 |
| 20260505200612 | 85 | 200 | 10.0 | 19.0 | 0.00 | 0.00 | 0.00 | 75 | 1006.4 |
| 20260505200512 | 85 | 195 | 8.0 | 19.0 | 0.00 | 0.00 | 0.00 | 75 | 1006.4 |
| 20260505200413 | 85 | 192 | 6.0 | 19.0 | 0.00 | 0.00 | 0.00 | 75 | 1006.4 |
| 20260505200313 | 85 | 202 | 7.0 | 19.0 | 0.00 | 0.00 | 0.00 | 75 | 1006.5 |
| 20260505200212 | 85 | 193 | 9.0 | 19.0 | 0.00 | 0.00 | 0.00 | 74 | 1006.4 |
| 20260505200113 | 85 | 234 | 10.0 | 19.0 | 0.00 | 0.00 | 0.00 | 74 | 1006.5 |
| 20260505200014 | 85 | 224 | 11.0 | 19.0 | 0.00 | 0.00 | 0.00 | 74 | 1006.5 |
| 20260505195913 | 85 | 250 | 11.0 | 18.0 | 0.00 | 0.00 | 0.00 | 73 | 1006.4 |
| 20260505195811 | 85 | 206 | 10.0 | 18.0 | 0.00 | 0.00 | 0.00 | 74 | 1006.4 |
| 20260505195712 | 85 | 247 | 11.0 | 18.0 | 0.00 | 0.00 | 0.00 | 74 | 1006.4 |
| 20260505195611 | 85 | 254 | 10.0 | 16.0 | 0.00 | 0.00 | 0.00 | 75 | 1006.4 |
| 20260505195511 | 85 | 190 | 8.0 | 16.0 | 0.00 | 0.00 | 0.00 | 75 | 1006.4 |
| 20260505195411 | 85 | 203 | 9.0 | 16.0 | 0.00 | 0.00 | 0.00 | 75 | 1006.5 |
| 20260505195313 | 85 | 195 | 11.0 | 16.0 | 0.00 | 0.00 | 0.00 | 75 | 1006.5 |
| 20260505195212 | 85 | 199 | 12.0 | 16.0 | 0.00 | 0.00 | 0.00 | 74 | 1006.5 |
| 20260505195112 | 85 | 185 | 10.0 | 16.0 | 0.00 | 0.00 | 0.00 | 74 | 1006.6 |
| 20260505195012 | 85 | 213 | 9.0 | 16.0 | 0.00 | 0.00 | 0.00 | 75 | 1006.6 |
| 20260505194912 | 85 | 240 | 8.0 | 16.0 | 0.00 | 0.00 | 0.00 | 75 | 1006.6 |
| 20260505194811 | 85 | 157 | 8.0 | 17.0 | 0.00 | 0.00 | 0.00 | 75 | 1006.6 |
| 20260505194712 | 85 | 161 | 9.0 | 17.0 | 0.00 | 0.00 | 0.00 | 75 | 1006.6 |
| 20260505194612 | 85 | 175 | 11.0 | 17.0 | 0.00 | 0.00 | 0.00 | 74 | 1006.6 |
| 20260505194511 | 85 | 224 | 10.0 | 17.0 | 0.00 | 0.00 | 0.00 | 74 | 1006.6 |
| 20260505194411 | 85 | 228 | 8.0 | 17.0 | 0.00 | 0.00 | 0.00 | 75 | 1006.6 |
| 20260505194313 | 85 | 185 | 9.0 | 17.0 | 0.00 | 0.00 | 0.00 | 75 | 1006.6 |
| 20260505194212 | 85 | 216 | 8.0 | 17.0 | 0.00 | 0.00 | 0.00 | 75 | 1006.7 |
| 20260505194112 | 85 | 213 | 6.0 | 17.0 | 0.00 | 0.00 | 0.00 | 76 | 1006.6 |
| 20260505194012 | 84 | 251 | 7.0 | 17.0 | 0.00 | 0.00 | 0.00 | 76 | 1006.7 |
| 20260505193912 | 84 | 217 | 8.0 | 17.0 | 0.00 | 0.00 | 0.00 | 77 | 1006.7 |
| 20260505193811 | 84 | 183 | 10.0 | 16.0 | 0.00 | 0.00 | 0.00 | 77 | 1006.7 |
| 20260505193711 | 83 | 175 | 11.0 | 16.0 | 0.00 | 0.00 | 0.00 | 77 | 1006.7 |
| 20260505193612 | 83 | 243 | 9.0 | 15.0 | 0.00 | 0.00 | 0.00 | 77 | 1006.8 |
| 20260505193512 | 83 | 186 | 7.0 | 17.0 | 0.00 | 0.00 | 0.00 | 78 | 1006.8 |
| 20260505193411 | 83 | 200 | 9.0 | 17.0 | 0.00 | 0.00 | 0.00 | 77 | 1006.7 |
| 20260505193311 | 83 | 183 | 9.0 | 17.0 | 0.00 | 0.00 | 0.00 | 77 | 1006.8 |
| 20260505193212 | 83 | 133 | 8.0 | 17.0 | 0.00 | 0.00 | 0.00 | 78 | 1006.8 |
| 20260505193111 | 83 | 223 | 9.0 | 17.0 | 0.00 | 0.00 | 0.00 | 78 | 1006.9 |
| 20260505193012 | 83 | 216 | 8.0 | 17.0 | 0.00 | 0.00 | 0.00 | 77 | 1006.8 |
| 20260505192913 | 83 | 183 | 9.0 | 17.0 | 0.00 | 0.00 | 0.00 | 77 | 1006.8 |
| 20260505192811 | 83 | 195 | 9.0 | 17.0 | 0.00 | 0.00 | 0.00 | 77 | 1006.8 |
| 20260505192711 | 83 | 193 | 7.0 | 17.0 | 0.00 | 0.00 | 0.00 | 77 | 1006.8 |
| 20260505192611 | 83 | 148 | 7.0 | 17.0 | 0.00 | 0.00 | 0.00 | 77 | 1006.8 |
| 20260505192513 | 83 | 202 | 7.0 | 14.0 | 0.00 | 0.00 | 0.00 | 77 | 1006.8 |
| 20260505192411 | 83 | 186 | 6.0 | 14.0 | 0.00 | 0.00 | 0.00 | 77 | 1006.9 |
| 20260505192311 | 83 | 209 | 5.0 | 14.0 | 0.00 | 0.00 | 0.00 | 78 | 1006.9 |
| 20260505192211 | 83 | 214 | 5.0 | 14.0 | 0.00 | 0.00 | 0.00 | 77 | 1006.8 |
| 20260505192110 | 83 | 248 | 5.0 | 17.0 | 0.00 | 0.00 | 0.00 | 77 | 1006.9 |
| 20260505192010 | 83 | 240 | 6.0 | 17.0 | 0.00 | 0.00 | 0.00 | 77 | 1006.8 |
| 20260505191911 | 83 | 221 | 9.0 | 17.0 | 0.00 | 0.00 | 0.00 | 76 | 1006.9 |
| 20260505191812 | 83 | 223 | 9.0 | 17.0 | 0.00 | 0.00 | 0.00 | 76 | 1006.9 |
| 20260505191710 | 84 | 206 | 6.0 | 17.0 | 0.00 | 0.00 | 0.00 | 76 | 1007.0 |
| 20260505191611 | 84 | 179 | 5.0 | 17.0 | 0.00 | 0.00 | 0.00 | 77 | 1007.0 |
| 20260505191513 | 84 | 199 | 5.0 | 17.0 | 0.00 | 0.00 | 0.00 | 78 | 1007.0 |
| 20260505191410 | 83 | 158 | 8.0 | 17.0 | 0.00 | 0.00 | 0.00 | 78 | 1007.0 |
| 20260505191310 | 83 | 190 | 10.0 | 17.0 | 0.00 | 0.00 | 0.00 | 77 | 1006.9 |
| 20260505191210 | 83 | 210 | 9.0 | 17.0 | 0.00 | 0.00 | 0.00 | 77 | 1007.0 |
| 20260505191111 | 83 | 159 | 9.0 | 14.0 | 0.00 | 0.00 | 0.00 | 77 | 1006.9 |
| 20260505191010 | 83 | 241 | 10.0 | 14.0 | 0.00 | 0.00 | 0.00 | 77 | 1006.9 |
| 20260505190911 | 83 | 209 | 9.0 | 14.0 | 0.00 | 0.00 | 0.00 | 77 | 1007.0 |
| 20260505190812 | 83 | 197 | 8.0 | 14.0 | 0.00 | 0.00 | 0.00 | 77 | 1007.0 |
| 20260505190711 | 83 | 152 | 7.0 | 14.0 | 0.00 | 0.00 | 0.00 | 77 | 1007.0 |
| 20260505190610 | 83 | 196 | 6.0 | 12.0 | 0.00 | 0.00 | 0.00 | 78 | 1007.0 |
| 20260505190511 | 83 | 106 | 7.0 | 12.0 | 0.00 | 0.00 | 0.00 | 78 | 1006.9 |
| 20260505190412 | 83 | 204 | 8.0 | 13.0 | 0.00 | 0.00 | 0.00 | 78 | 1007.0 |
| 20260505190310 | 83 | 168 | 7.0 | 13.0 | 0.00 | 0.00 | 0.00 | 78 | 1007.0 |
| 20260505190211 | 83 | 171 | 7.0 | 13.0 | 0.00 | 0.00 | 0.00 | 78 | 1007.0 |
| 20260505190111 | 83 | 193 | 7.0 | 13.0 | 0.00 | 0.00 | 0.00 | 78 | 1007.0 |
| 20260505190011 | 83 | 227 | 7.0 | 13.0 | 0.00 | 0.00 | 0.00 | 78 | 1007.1 |
| 20260505185910 | 83 | 206 | 7.0 | 13.0 | 0.00 | 0.00 | 0.00 | 79 | 1007.1 |
| 20260505185812 | 82 | 176 | 8.0 | 13.0 | 0.00 | 0.00 | 0.00 | 79 | 1007.1 |
| 20260505185711 | 82 | 172 | 6.0 | 16.0 | 0.00 | 0.00 | 0.00 | 79 | 1007.1 |
| 20260505185611 | 82 | 161 | 7.0 | 16.0 | 0.00 | 0.00 | 0.00 | 79 | 1007.1 |
| 20260505185510 | 82 | 227 | 8.0 | 16.0 | 0.00 | 0.00 | 0.00 | 79 | 1007.1 |
| 20260505185411 | 82 | 171 | 8.0 | 16.0 | 0.00 | 0.00 | 0.00 | 80 | 1007.1 |
| 20260505185310 | 82 | 244 | 6.0 | 16.0 | 0.00 | 0.00 | 0.00 | 79 | 1007.1 |
| 20260505185210 | 81 | 195 | 6.0 | 16.0 | 0.00 | 0.00 | 0.00 | 79 | 1007.2 |
| 20260505185112 | 82 | 234 | 8.0 | 18.0 | 0.00 | 0.00 | 0.00 | 79 | 1007.2 |
| 20260505185010 | 81 | 212 | 8.0 | 18.0 | 0.00 | 0.00 | 0.00 | 79 | 1007.2 |
| 20260505184910 | 81 | 234 | 9.0 | 18.0 | 0.00 | 0.00 | 0.00 | 79 | 1007.2 |
| 20260505184810 | 82 | 0 | 10.0 | 18.0 | 0.00 | 0.00 | 0.00 | 79 | 1007.2 |
| 20260505184712 | 82 | 0 | 9.0 | 18.0 | 0.00 | 0.00 | 0.00 | 78 | 1007.2 |
| 20260505184610 | 82 | 0 | 9.0 | 18.0 | 0.00 | 0.00 | 0.00 | 78 | 1007.2 |
| 20260505184510 | 82 | 0 | 10.0 | 18.0 | 0.00 | 0.00 | 0.00 | 78 | 1007.2 |
| 20260505184411 | 82 | 0 | 9.0 | 18.0 | 0.00 | 0.00 | 0.00 | 78 | 1007.2 |
| 20260505184309 | 82 | 117 | 8.0 | 18.0 | 0.00 | 0.00 | 0.00 | 78 | 1007.2 |
| 20260505184209 | 82 | 0 | 6.0 | 18.0 | 0.00 | 0.00 | 0.00 | 79 | 1007.2 |
| 20260505184110 | 82 | 0 | 6.0 | 15.0 | 0.00 | 0.00 | 0.00 | 79 | 1007.2 |
| 20260505184011 | 82 | 0 | 8.0 | 15.0 | 0.00 | 0.00 | 0.00 | 78 | 1007.2 |
| 20260505183910 | 82 | 0 | 7.0 | 15.0 | 0.00 | 0.00 | 0.00 | 78 | 1007.1 |
| 20260505183811 | 82 | 0 | 6.0 | 18.0 | 0.00 | 0.00 | 0.00 | 78 | 1007.1 |
| 20260505183711 | 82 | 0 | 6.0 | 18.0 | 0.00 | 0.00 | 0.00 | 79 | 1007.1 |
| 20260505183610 | 82 | 130 | 6.0 | 18.0 | 0.00 | 0.00 | 0.00 | 79 | 1007.1 |
| 20260505183510 | 82 | 116 | 7.0 | 18.0 | 0.00 | 0.00 | 0.00 | 79 | 1007.2 |
| 20260505183411 | 82 | 0 | 6.0 | 18.0 | 0.00 | 0.00 | 0.00 | 79 | 1007.1 |
| 20260505183309 | 82 | 0 | 5.0 | 18.0 | 0.00 | 0.00 | 0.00 | 79 | 1007.1 |
| 20260505183211 | 82 | 0 | 6.0 | 18.0 | 0.00 | 0.00 | 0.00 | 79 | 1007.2 |
| 20260505183110 | 82 | 0 | 8.0 | 18.0 | 0.00 | 0.00 | 0.00 | 79 | 1007.3 |
| 20260505183011 | 82 | 0 | 11.0 | 18.0 | 0.00 | 0.00 | 0.00 | 79 | 1007.2 |
| 20260505182910 | 82 | 0 | 10.0 | 18.0 | 0.00 | 0.00 | 0.00 | 79 | 1007.2 |
| 20260505182809 | 82 | 0 | 7.0 | 13.0 | 0.00 | 0.00 | 0.00 | 80 | 1007.2 |
| 20260505182709 | 81 | 130 | 8.0 | 13.0 | 0.00 | 0.00 | 0.00 | 81 | 1007.3 |
| 20260505182610 | 81 | 0 | 6.0 | 12.0 | 0.00 | 0.00 | 0.00 | 81 | 1007.3 |
| 20260505182510 | 81 | 104 | 5.0 | 11.0 | 0.00 | 0.00 | 0.00 | 81 | 1007.3 |
| 20260505182410 | 81 | 0 | 5.0 | 11.0 | 0.00 | 0.00 | 0.00 | 81 | 1007.3 |
| 20260505182311 | 81 | 114 | 4.0 | 11.0 | 0.00 | 0.00 | 0.00 | 81 | 1007.2 |
| 20260505182210 | 81 | 0 | 5.0 | 11.0 | 0.00 | 0.00 | 0.00 | 81 | 1007.3 |
| 20260505182110 | 81 | 0 | 6.0 | 12.0 | 0.00 | 0.00 | 0.00 | 81 | 1007.3 |
| 20260505182010 | 81 | 0 | 6.0 | 15.0 | 0.00 | 0.00 | 0.00 | 81 | 1007.2 |
| 20260505181911 | 81 | 0 | 5.0 | 15.0 | 0.00 | 0.00 | 0.00 | 81 | 1007.3 |
| 20260505181810 | 81 | 0 | 4.0 | 15.0 | 0.00 | 0.00 | 0.00 | 81 | 1007.3 |
| 20260505181709 | 81 | 120 | 4.0 | 15.0 | 0.00 | 0.00 | 0.00 | 81 | 1007.3 |
| 20260505181610 | 81 | 0 | 6.0 | 15.0 | 0.00 | 0.00 | 0.00 | 81 | 1007.3 |
| 20260505181509 | 81 | 107 | 6.0 | 15.0 | 0.00 | 0.00 | 0.00 | 81 | 1007.3 |
| 20260505181409 | 81 | 0 | 7.0 | 15.0 | 0.00 | 0.00 | 0.00 | 81 | 1007.3 |
| 20260505181309 | 81 | 117 | 8.0 | 15.0 | 0.00 | 0.00 | 0.00 | 81 | 1007.3 |
| 20260505181210 | 81 | 0 | 9.0 | 15.0 | 0.00 | 0.00 | 0.00 | 81 | 1007.2 |
| 20260505181110 | 81 | 0 | 7.0 | 15.0 | 0.00 | 0.00 | 0.00 | 81 | 1007.3 |
| 20260505181010 | 81 | 111 | 7.0 | 14.0 | 0.00 | 0.00 | 0.00 | 81 | 1007.3 |
| 20260505180910 | 81 | 0 | 9.0 | 14.0 | 0.00 | 0.00 | 0.00 | 81 | 1007.3 |
| 20260505180810 | 81 | 0 | 8.0 | 14.0 | 0.00 | 0.00 | 0.00 | 81 | 1007.3 |
| 20260505180711 | 81 | 0 | 8.0 | 14.0 | 0.00 | 0.00 | 0.00 | 81 | 1007.2 |
| 20260505180611 | 81 | 113 | 6.0 | 14.0 | 0.00 | 0.00 | 0.00 | 81 | 1007.4 |
| 20260505180509 | 81 | 103 | 4.0 | 14.0 | 0.00 | 0.00 | 0.00 | 81 | 1007.4 |
| 20260505180409 | 81 | 0 | 4.0 | 14.0 | 0.00 | 0.00 | 0.00 | 81 | 1007.4 |
| 20260505180309 | 81 | 28 | 4.0 | 14.0 | 0.00 | 0.00 | 0.00 | 81 | 1007.4 |
| 20260505180210 | 81 | 103 | 6.0 | 14.0 | 0.00 | 0.00 | 0.00 | 81 | 1007.4 |
| 20260505180110 | 81 | 0 | 5.0 | 15.0 | 0.00 | 0.00 | 0.00 | 81 | 1007.3 |
| 20260505180009 | 81 | 92 | 7.0 | 16.0 | 0.00 | 0.00 | 0.00 | 81 | 1007.3 |
| 20260505175909 | 81 | 113 | 8.0 | 16.0 | 0.00 | 0.00 | 0.00 | 81 | 1007.3 |
| 20260505175811 | 81 | 0 | 8.0 | 16.0 | 0.00 | 0.00 | 0.00 | 81 | 1007.3 |
| 20260505175709 | 81 | 0 | 7.0 | 16.0 | 0.00 | 0.00 | 0.00 | 81 | 1007.4 |
| 20260505175609 | 81 | 0 | 5.0 | 16.0 | 0.00 | 0.00 | 0.00 | 81 | 1007.4 |
| 20260505175510 | 81 | 0 | 4.0 | 16.0 | 0.00 | 0.00 | 0.00 | 81 | 1007.4 |
| 20260505175409 | 81 | 103 | 6.0 | 16.0 | 0.00 | 0.00 | 0.00 | 81 | 1007.4 |
| 20260505175309 | 81 | 0 | 9.0 | 16.0 | 0.00 | 0.00 | 0.00 | 81 | 1007.4 |
| 20260505175208 | 81 | 0 | 9.0 | 16.0 | 0.00 | 0.00 | 0.00 | 80 | 1007.4 |
| 20260505175110 | 81 | 0 | 8.0 | 16.0 | 0.00 | 0.00 | 0.00 | 81 | 1007.5 |
| 20260505175010 | 81 | 0 | 9.0 | 15.0 | 0.00 | 0.00 | 0.00 | 80 | 1007.5 |
| 20260505174910 | 81 | 0 | 9.0 | 15.0 | 0.00 | 0.00 | 0.00 | 80 | 1007.4 |
| 20260505174809 | 81 | 0 | 6.0 | 13.0 | 0.00 | 0.00 | 0.00 | 81 | 1007.4 |
| 20260505174708 | 81 | 0 | 5.0 | 13.0 | 0.00 | 0.00 | 0.00 | 81 | 1007.4 |
| 20260505174609 | 81 | 106 | 5.0 | 13.0 | 0.00 | 0.00 | 0.00 | 81 | 1007.5 |
| 20260505174508 | 81 | 0 | 5.0 | 13.0 | 0.00 | 0.00 | 0.00 | 81 | 1007.5 |
| 20260505174409 | 81 | 0 | 4.0 | 13.0 | 0.00 | 0.00 | 0.00 | 81 | 1007.5 |
| 20260505174309 | 81 | 0 | 5.0 | 14.0 | 0.00 | 0.00 | 0.00 | 81 | 1007.6 |
| 20260505174209 | 80 | 0 | 7.0 | 14.0 | 0.00 | 0.00 | 0.00 | 81 | 1007.5 |
| 20260505174109 | 80 | 102 | 9.0 | 14.0 | 0.00 | 0.00 | 0.00 | 81 | 1007.5 |
| 20260505174008 | 80 | 116 | 9.0 | 14.0 | 0.00 | 0.00 | 0.00 | 81 | 1007.6 |
| 20260505173909 | 80 | 103 | 8.0 | 14.0 | 0.00 | 0.00 | 0.00 | 81 | 1007.6 |
| 20260505173811 | 80 | 96 | 7.0 | 14.0 | 0.00 | 0.00 | 0.00 | 81 | 1007.6 |
| 20260505173709 | 80 | 0 | 7.0 | 15.0 | 0.00 | 0.00 | 0.00 | 81 | 1007.6 |
| 20260505173608 | 80 | 0 | 7.0 | 15.0 | 0.00 | 0.00 | 0.00 | 81 | 1007.6 |
| 20260505173508 | 80 | 85 | 7.0 | 15.0 | 0.00 | 0.00 | 0.00 | 81 | 1007.6 |
| 20260505173410 | 80 | 0 | 7.0 | 15.0 | 0.00 | 0.00 | 0.00 | 81 | 1007.7 |
| 20260505173309 | 80 | 0 | 6.0 | 15.0 | 0.00 | 0.00 | 0.00 | 81 | 1007.7 |
| 20260505173209 | 80 | 0 | 6.0 | 15.0 | 0.00 | 0.00 | 0.00 | 81 | 1007.7 |
| 20260505173109 | 80 | 0 | 7.0 | 15.0 | 0.00 | 0.00 | 0.00 | 81 | 1007.7 |
| 20260505173009 | 80 | 0 | 6.0 | 15.0 | 0.00 | 0.00 | 0.00 | 82 | 1007.7 |
| 20260505172909 | 80 | 110 | 8.0 | 15.0 | 0.00 | 0.00 | 0.00 | 81 | 1007.7 |
| 20260505172808 | 80 | 0 | 9.0 | 15.0 | 0.00 | 0.00 | 0.00 | 81 | 1007.7 |
| 20260505172711 | 80 | 0 | 9.0 | 15.0 | 0.00 | 0.00 | 0.00 | 81 | 1007.7 |
| 20260505172610 | 80 | 97 | 7.0 | 15.0 | 0.00 | 0.00 | 0.00 | 82 | 1007.8 |
| 20260505172508 | 80 | 90 | 5.0 | 15.0 | 0.00 | 0.00 | 0.00 | 82 | 1007.7 |
| 20260505172410 | 80 | 0 | 6.0 | 15.0 | 0.00 | 0.00 | 0.00 | 82 | 1007.7 |
| 20260505172308 | 80 | 118 | 8.0 | 15.0 | 0.00 | 0.00 | 0.00 | 82 | 1007.7 |
| 20260505172208 | 80 | 113 | 7.0 | 15.0 | 0.00 | 0.00 | 0.00 | 82 | 1007.7 |
| 20260505172109 | 80 | 0 | 9.0 | 15.0 | 0.00 | 0.00 | 0.00 | 82 | 1007.7 |
| 20260505172009 | 80 | 0 | 9.0 | 15.0 | 0.00 | 0.00 | 0.00 | 83 | 1007.7 |
| 20260505171908 | 80 | 106 | 8.0 | 15.0 | 0.00 | 0.00 | 0.00 | 83 | 1007.8 |
| 20260505171808 | 80 | 0 | 7.0 | 15.0 | 0.00 | 0.00 | 0.00 | 83 | 1007.7 |
| 20260505171710 | 79 | 94 | 7.0 | 14.0 | 0.00 | 0.00 | 0.00 | 83 | 1007.8 |
| 20260505171608 | 79 | 104 | 8.0 | 12.0 | 0.00 | 0.00 | 0.00 | 84 | 1007.8 |
| 20260505171509 | 79 | 0 | 7.0 | 14.0 | 0.00 | 0.00 | 0.00 | 84 | 1007.7 |
| 20260505171408 | 79 | 0 | 5.0 | 14.0 | 0.00 | 0.00 | 0.00 | 84 | 1007.7 |
| 20260505171309 | 79 | 0 | 6.0 | 14.0 | 0.00 | 0.00 | 0.00 | 84 | 1007.8 |
| 20260505171207 | 79 | 110 | 7.0 | 14.0 | 0.00 | 0.00 | 0.00 | 84 | 1007.8 |
| 20260505171108 | 79 | 123 | 7.0 | 14.0 | 0.00 | 0.00 | 0.00 | 84 | 1007.8 |
| 20260505171010 | 79 | 102 | 7.0 | 14.0 | 0.00 | 0.00 | 0.00 | 84 | 1007.9 |
| 20260505170909 | 79 | 114 | 6.0 | 14.0 | 0.00 | 0.00 | 0.00 | 84 | 1007.9 |
| 20260505170808 | 79 | 86 | 7.0 | 14.0 | 0.00 | 0.00 | 0.00 | 84 | 1007.9 |
| 20260505170710 | 79 | 109 | 8.0 | 14.0 | 0.00 | 0.00 | 0.00 | 84 | 1007.8 |
| 20260505170611 | 79 | 117 | 9.0 | 14.0 | 0.00 | 0.00 | 0.00 | 84 | 1007.8 |
| 20260505170508 | 79 | 106 | 7.0 | 14.0 | 0.00 | 0.00 | 0.00 | 84 | 1007.9 |
| 20260505170408 | 79 | 110 | 5.0 | 11.0 | 0.00 | 0.00 | 0.00 | 83 | 1007.9 |
| 20260505170310 | 79 | 97 | 5.0 | 11.0 | 0.00 | 0.00 | 0.00 | 83 | 1007.9 |
| 20260505170208 | 79 | 107 | 6.0 | 11.0 | 0.00 | 0.00 | 0.00 | 83 | 1007.8 |
| 20260505170108 | 79 | 99 | 6.0 | 11.0 | 0.00 | 0.00 | 0.00 | 82 | 1007.8 |
| 20260505170008 | 80 | 0 | 5.0 | 15.0 | 0.00 | 0.00 | 0.00 | 82 | 1007.8 |
| 20260505165909 | 80 | 109 | 5.0 | 15.0 | 0.00 | 0.00 | 0.00 | 82 | 1007.8 |
| 20260505165808 | 80 | 100 | 5.0 | 15.0 | 0.00 | 0.00 | 0.00 | 82 | 1007.8 |
| 20260505165708 | 80 | 0 | 4.0 | 15.0 | 0.00 | 0.00 | 0.00 | 82 | 1007.8 |
| 20260505165608 | 80 | 104 | 6.0 | 15.0 | 0.00 | 0.00 | 0.00 | 82 | 1007.9 |
| 20260505165507 | 80 | 114 | 7.0 | 15.0 | 0.00 | 0.00 | 0.00 | 82 | 1007.8 |
| 20260505165407 | 80 | 100 | 7.0 | 15.0 | 0.00 | 0.00 | 0.00 | 82 | 1007.8 |
| 20260505165309 | 80 | 0 | 7.0 | 15.0 | 0.00 | 0.00 | 0.00 | 82 | 1007.8 |
| 20260505165208 | 80 | 113 | 9.0 | 15.0 | 0.00 | 0.00 | 0.00 | 82 | 1007.9 |
| 20260505165108 | 80 | 0 | 11.0 | 15.0 | 0.00 | 0.00 | 0.00 | 82 | 1007.9 |
| 20260505165008 | 80 | 104 | 10.0 | 14.0 | 0.00 | 0.00 | 0.00 | 82 | 1007.8 |
| 20260505164909 | 80 | 107 | 8.0 | 16.0 | 0.00 | 0.00 | 0.00 | 82 | 1007.9 |
| 20260505164808 | 80 | 120 | 7.0 | 16.0 | 0.00 | 0.00 | 0.00 | 82 | 1007.9 |
| 20260505164707 | 80 | 107 | 8.0 | 16.0 | 0.00 | 0.00 | 0.00 | 81 | 1007.9 |
| 20260505164610 | 80 | 128 | 7.0 | 16.0 | 0.00 | 0.00 | 0.00 | 82 | 1007.8 |
| 20260505164509 | 80 | 89 | 7.0 | 16.0 | 0.00 | 0.00 | 0.00 | 82 | 1007.8 |
| 20260505164408 | 80 | 0 | 8.0 | 16.0 | 0.00 | 0.00 | 0.00 | 82 | 1007.8 |
| 20260505164307 | 80 | 104 | 6.0 | 16.0 | 0.00 | 0.00 | 0.00 | 82 | 1007.8 |
| 20260505164209 | 80 | 94 | 6.0 | 16.0 | 0.00 | 0.00 | 0.00 | 82 | 1007.9 |
| 20260505164107 | 80 | 0 | 8.0 | 17.0 | 0.00 | 0.00 | 0.00 | 82 | 1007.8 |
| 20260505164007 | 80 | 116 | 8.0 | 17.0 | 0.00 | 0.00 | 0.00 | 82 | 1007.8 |
| 20260505163910 | 80 | 104 | 7.0 | 17.0 | 0.00 | 0.00 | 0.00 | 82 | 1007.8 |
| 20260505163808 | 80 | 79 | 5.0 | 17.0 | 0.00 | 0.00 | 0.00 | 82 | 1007.8 |
| 20260505163707 | 80 | 86 | 6.0 | 17.0 | 0.00 | 0.00 | 0.00 | 82 | 1007.8 |
| 20260505163609 | 80 | 0 | 7.0 | 17.0 | 0.00 | 0.00 | 0.00 | 82 | 1007.8 |
| 20260505163508 | 80 | 102 | 8.0 | 17.0 | 0.00 | 0.00 | 0.00 | 82 | 1007.8 |
| 20260505163407 | 80 | 94 | 9.0 | 17.0 | 0.00 | 0.00 | 0.00 | 82 | 1007.8 |
| 20260505163307 | 80 | 109 | 9.0 | 17.0 | 0.00 | 0.00 | 0.00 | 82 | 1007.8 |
| 20260505163208 | 80 | 102 | 8.0 | 17.0 | 0.00 | 0.00 | 0.00 | 82 | 1007.8 |
| 20260505163107 | 80 | 0 | 6.0 | 13.0 | 0.00 | 0.00 | 0.00 | 82 | 1007.8 |
| 20260505163009 | 80 | 116 | 7.0 | 13.0 | 0.00 | 0.00 | 0.00 | 82 | 1007.8 |
| 20260505162908 | 80 | 100 | 8.0 | 13.0 | 0.00 | 0.00 | 0.00 | 82 | 1007.8 |
| 20260505162808 | 80 | 82 | 7.0 | 13.0 | 0.00 | 0.00 | 0.00 | 82 | 1007.8 |
| 20260505162707 | 80 | 104 | 6.0 | 13.0 | 0.00 | 0.00 | 0.00 | 82 | 1007.7 |
| 20260505162607 | 80 | 104 | 6.0 | 13.0 | 0.00 | 0.00 | 0.00 | 82 | 1007.7 |
| 20260505162508 | 79 | 107 | 6.0 | 13.0 | 0.00 | 0.00 | 0.00 | 82 | 1007.7 |
| 20260505162407 | 79 | 99 | 7.0 | 13.0 | 0.00 | 0.00 | 0.00 | 83 | 1007.7 |
| 20260505162307 | 79 | 130 | 8.0 | 13.0 | 0.00 | 0.00 | 0.00 | 82 | 1007.8 |
| 20260505162208 | 79 | 107 | 7.0 | 13.0 | 0.00 | 0.00 | 0.00 | 82 | 1007.7 |
| 20260505162107 | 79 | 116 | 6.0 | 13.0 | 0.00 | 0.00 | 0.00 | 82 | 1007.8 |
| 20260505162006 | 79 | 103 | 5.0 | 13.0 | 0.00 | 0.00 | 0.00 | 83 | 1007.9 |
| 20260505161907 | 79 | 124 | 6.0 | 13.0 | 0.00 | 0.00 | 0.00 | 83 | 1007.8 |
| 20260505161809 | 79 | 117 | 7.0 | 13.0 | 0.00 | 0.00 | 0.00 | 83 | 1007.7 |
| 20260505161708 | 79 | 104 | 7.0 | 13.0 | 0.00 | 0.00 | 0.00 | 83 | 1007.8 |
| 20260505161606 | 79 | 106 | 5.0 | 10.0 | 0.00 | 0.00 | 0.00 | 83 | 1007.7 |
| 20260505161507 | 79 | 8 | 4.0 | 10.0 | 0.00 | 0.00 | 0.00 | 83 | 1007.7 |
| 20260505161407 | 79 | 100 | 3.0 | 10.0 | 0.00 | 0.00 | 0.00 | 83 | 1007.7 |
| 20260505161307 | 79 | 135 | 3.0 | 10.0 | 0.00 | 0.00 | 0.00 | 83 | 1007.7 |
| 20260505161207 | 79 | 93 | 4.0 | 10.0 | 0.00 | 0.00 | 0.00 | 83 | 1007.7 |
| 20260505161107 | 79 | 107 | 6.0 | 10.0 | 0.00 | 0.00 | 0.00 | 83 | 1007.7 |
| 20260505161007 | 79 | 111 | 6.0 | 10.0 | 0.00 | 0.00 | 0.00 | 84 | 1007.7 |
| 20260505160906 | 79 | 97 | 4.0 | 11.0 | 0.00 | 0.00 | 0.00 | 84 | 1007.7 |
| 20260505160806 | 79 | 110 | 4.0 | 11.0 | 0.00 | 0.00 | 0.00 | 84 | 1007.7 |
| 20260505160707 | 79 | 94 | 6.0 | 11.0 | 0.00 | 0.00 | 0.00 | 83 | 1007.7 |
| 20260505160607 | 79 | 96 | 6.0 | 11.0 | 0.00 | 0.00 | 0.00 | 84 | 1007.7 |
| 20260505160507 | 79 | 113 | 4.0 | 11.0 | 0.00 | 0.00 | 0.00 | 84 | 1007.8 |
| 20260505160407 | 79 | 86 | 4.0 | 11.0 | 0.00 | 0.00 | 0.00 | 84 | 1007.8 |
| 20260505160307 | 79 | 86 | 6.0 | 11.0 | 0.00 | 0.00 | 0.00 | 83 | 1007.8 |
| 20260505160206 | 79 | 92 | 6.0 | 11.0 | 0.00 | 0.00 | 0.00 | 83 | 1007.7 |
| 20260505160107 | 79 | 103 | 6.0 | 11.0 | 0.00 | 0.00 | 0.00 | 83 | 1007.7 |
| 20260505153303 | 78 | 155 | 8.0 | 12.0 | 0.00 | 0.00 | 0.00 | 83 | 1007.5 |
| 20260505153202 | 78 | 125 | 8.0 | 12.0 | 0.00 | 0.00 | 0.00 | 83 | 1007.6 |
| 20260505153103 | 78 | 125 | 6.0 | 12.0 | 0.00 | 0.00 | 0.00 | 83 | 1007.6 |
| 20260505153004 | 78 | 130 | 6.0 | 12.0 | 0.00 | 0.00 | 0.00 | 83 | 1007.6 |
| 20260505152903 | 78 | 87 | 6.0 | 12.0 | 0.00 | 0.00 | 0.00 | 83 | 1007.6 |
| 20260505152802 | 78 | 104 | 6.0 | 12.0 | 0.00 | 0.00 | 0.00 | 83 | 1007.6 |
| 20260505152703 | 78 | 107 | 6.0 | 12.0 | 0.00 | 0.00 | 0.00 | 83 | 1007.6 |
| 20260505152603 | 78 | 109 | 5.0 | 12.0 | 0.00 | 0.00 | 0.00 | 83 | 1007.6 |
| 20260505152503 | 78 | 110 | 6.0 | 12.0 | 0.00 | 0.00 | 0.00 | 83 | 1007.5 |
| 20260505152403 | 78 | 78 | 7.0 | 12.0 | 0.00 | 0.00 | 0.00 | 83 | 1007.6 |
| 20260505152305 | 78 | 103 | 6.0 | 12.0 | 0.00 | 0.00 | 0.00 | 83 | 1007.5 |
| 20260505152203 | 78 | 94 | 7.0 | 12.0 | 0.00 | 0.00 | 0.00 | 83 | 1007.6 |
| 20260505152103 | 78 | 111 | 7.0 | 12.0 | 0.00 | 0.00 | 0.00 | 83 | 1007.5 |
| 20260505152003 | 78 | 117 | 6.0 | 12.0 | 0.00 | 0.00 | 0.00 | 83 | 1007.5 |
| 20260505151902 | 78 | 117 | 6.0 | 13.0 | 0.00 | 0.00 | 0.00 | 83 | 1007.5 |
| 20260505151802 | 78 | 100 | 5.0 | 13.0 | 0.00 | 0.00 | 0.00 | 84 | 1007.4 |
| 20260505151703 | 78 | 87 | 5.0 | 13.0 | 0.00 | 0.00 | 0.00 | 84 | 1007.4 |
| 20260505151603 | 78 | 124 | 5.0 | 15.0 | 0.00 | 0.00 | 0.00 | 84 | 1007.5 |
| 20260505151503 | 78 | 94 | 4.0 | 15.0 | 0.00 | 0.00 | 0.00 | 84 | 1007.5 |
| 20260505151403 | 78 | 140 | 6.0 | 15.0 | 0.00 | 0.00 | 0.00 | 84 | 1007.4 |
| 20260505151303 | 78 | 118 | 6.0 | 15.0 | 0.00 | 0.00 | 0.00 | 84 | 1007.5 |
| 20260505151203 | 78 | 96 | 7.0 | 15.0 | 0.00 | 0.00 | 0.00 | 84 | 1007.5 |
| 20260505151103 | 78 | 86 | 7.0 | 15.0 | 0.00 | 0.00 | 0.00 | 84 | 1007.5 |
| 20260505151004 | 78 | 123 | 8.0 | 15.0 | 0.00 | 0.00 | 0.00 | 84 | 1007.5 |
| 20260505150903 | 78 | 94 | 7.0 | 15.0 | 0.00 | 0.00 | 0.00 | 84 | 1007.5 |
| 20260505150803 | 78 | 102 | 8.0 | 15.0 | 0.00 | 0.00 | 0.00 | 84 | 1007.5 |
| 20260505150702 | 78 | 82 | 9.0 | 15.0 | 0.00 | 0.00 | 0.00 | 84 | 1007.5 |
| 20260505150604 | 78 | 134 | 8.0 | 15.0 | 0.00 | 0.00 | 0.00 | 84 | 1007.5 |
| 20260505150502 | 78 | 124 | 7.0 | 14.0 | 0.00 | 0.00 | 0.00 | 84 | 1007.6 |
| 20260505150402 | 78 | 111 | 7.0 | 14.0 | 0.00 | 0.00 | 0.00 | 84 | 1007.6 |
| 20260505150304 | 78 | 106 | 6.0 | 14.0 | 0.00 | 0.00 | 0.00 | 84 | 1007.6 |
| 20260505150203 | 78 | 86 | 5.0 | 14.0 | 0.00 | 0.00 | 0.00 | 84 | 1007.5 |
| 20260505140602 | 77 | 100 | 6.0 | 18.0 | 0.00 | 0.00 | 0.00 | 86 | 1007.2 |
| 20260505140502 | 77 | 83 | 7.0 | 18.0 | 0.00 | 0.00 | 0.00 | 86 | 1007.2 |
| 20260505140403 | 77 | 113 | 9.0 | 18.0 | 0.00 | 0.00 | 0.00 | 87 | 1007.3 |
| 20260505140301 | 77 | 93 | 10.0 | 18.0 | 0.00 | 0.00 | 0.00 | 87 | 1007.4 |
| 20260505140203 | 76 | 87 | 8.0 | 16.0 | 0.00 | 0.00 | 0.00 | 87 | 1007.4 |
| 20260505130212 | 75 | 65 | 6.0 | 16.0 | 0.00 | 0.00 | 0.00 | 88 | 1007.1 |
| 20260505130111 | 75 | 79 | 6.0 | 16.0 | 0.00 | 0.00 | 0.00 | 88 | 1007.0 |
| 20260505125003 | 75 | 82 | 5.0 | 11.0 | 0.00 | 0.00 | 0.00 | 89 | 1007.0 |
| 20260505124903 | 75 | 104 | 4.0 | 10.0 | 0.00 | 0.00 | 0.00 | 89 | 1007.0 |
| 20260505124803 | 75 | 76 | 4.0 | 10.0 | 0.00 | 0.00 | 0.00 | 89 | 1007.0 |
| 20260505124704 | 75 | 69 | 4.0 | 10.0 | 0.00 | 0.00 | 0.00 | 89 | 1007.1 |
| 20260505124603 | 75 | 96 | 4.0 | 10.0 | 0.00 | 0.00 | 0.00 | 89 | 1007.0 |
| 20260505124502 | 75 | 99 | 4.0 | 12.0 | 0.00 | 0.00 | 0.00 | 89 | 1007.0 |
| 20260505124403 | 74 | 73 | 4.0 | 12.0 | 0.00 | 0.00 | 0.00 | 89 | 1007.0 |
| 20260505124304 | 74 | 72 | 4.0 | 12.0 | 0.00 | 0.00 | 0.00 | 89 | 1007.0 |
| 20260505124202 | 74 | 80 | 5.0 | 12.0 | 0.00 | 0.00 | 0.00 | 89 | 1007.1 |
| 20260505124101 | 74 | 79 | 4.0 | 12.0 | 0.00 | 0.00 | 0.00 | 89 | 1007.1 |
| 20260505124002 | 74 | 87 | 4.0 | 12.0 | 0.00 | 0.00 | 0.00 | 89 | 1007.1 |
| 20260505123903 | 74 | 76 | 4.0 | 12.0 | 0.00 | 0.00 | 0.00 | 90 | 1007.1 |
| 20260505123802 | 74 | 47 | 4.0 | 12.0 | 0.00 | 0.00 | 0.00 | 90 | 1007.1 |
| 20260505123702 | 74 | 0 | 6.0 | 12.0 | 0.00 | 0.00 | 0.00 | 89 | 1007.1 |
| 20260505123604 | 74 | 0 | 7.0 | 12.0 | 0.00 | 0.00 | 0.00 | 89 | 1007.1 |
| 20260505123504 | 74 | 71 | 5.0 | 10.0 | 0.00 | 0.00 | 0.00 | 89 | 1007.2 |
| 20260505123401 | 74 | 72 | 5.0 | 10.0 | 0.00 | 0.00 | 0.00 | 89 | 1007.1 |
| 20260505123304 | 74 | 45 | 5.0 | 10.0 | 0.00 | 0.00 | 0.00 | 89 | 1007.1 |
| 20260505123203 | 74 | 45 | 4.0 | 10.0 | 0.00 | 0.00 | 0.00 | 89 | 1007.1 |
| 20260505123104 | 74 | 25 | 5.0 | 10.0 | 0.00 | 0.00 | 0.00 | 89 | 1007.0 |
| 20260505123003 | 74 | 45 | 5.0 | 10.0 | 0.00 | 0.00 | 0.00 | 90 | 1007.0 |
| 20260505122904 | 74 | 24 | 4.0 | 10.0 | 0.00 | 0.00 | 0.00 | 90 | 1007.0 |
| 20260505122804 | 74 | 42 | 4.0 | 10.0 | 0.00 | 0.00 | 0.00 | 90 | 1007.1 |
| 20260505122702 | 74 | 0 | 3.0 | 10.0 | 0.00 | 0.00 | 0.00 | 90 | 1007.2 |
| 20260505122602 | 74 | 35 | 3.0 | 7.0 | 0.00 | 0.00 | 0.00 | 90 | 1007.1 |
| 20260505122503 | 74 | 0 | 4.0 | 7.0 | 0.00 | 0.00 | 0.00 | 90 | 1007.1 |
| 20260505122403 | 74 | 48 | 4.0 | 7.0 | 0.00 | 0.00 | 0.00 | 90 | 1007.0 |
| 20260505122305 | 74 | 34 | 3.0 | 7.0 | 0.00 | 0.00 | 0.00 | 90 | 1007.0 |
| 20260505122203 | 74 | 47 | 3.0 | 7.0 | 0.00 | 0.00 | 0.00 | 90 | 1007.1 |
| 20260505122102 | 74 | 39 | 3.0 | 7.0 | 0.00 | 0.00 | 0.00 | 90 | 1007.1 |
| 20260505122002 | 74 | 31 | 2.0 | 7.0 | 0.00 | 0.00 | 0.00 | 90 | 1007.2 |
| 20260505121903 | 74 | 37 | 3.0 | 7.0 | 0.00 | 0.00 | 0.00 | 90 | 1007.1 |
| 20260505121801 | 74 | 0 | 4.0 | 10.0 | 0.00 | 0.00 | 0.00 | 90 | 1007.1 |
| 20260505121702 | 74 | 0 | 3.0 | 10.0 | 0.00 | 0.00 | 0.00 | 90 | 1007.0 |
| 20260505121602 | 74 | 41 | 2.0 | 10.0 | 0.00 | 0.00 | 0.00 | 90 | 1007.0 |
| 20260505121502 | 74 | 0 | 3.0 | 10.0 | 0.00 | 0.00 | 0.00 | 90 | 1007.0 |
| 20260505121401 | 74 | 42 | 3.0 | 10.0 | 0.00 | 0.00 | 0.00 | 90 | 1007.0 |
| 20260505121301 | 74 | 34 | 3.0 | 10.0 | 0.00 | 0.00 | 0.00 | 90 | 1006.9 |
| 20260505121203 | 74 | 28 | 3.0 | 11.0 | 0.00 | 0.00 | 0.00 | 89 | 1006.8 |
| 20260505121101 | 74 | 32 | 4.0 | 11.0 | 0.00 | 0.00 | 0.00 | 89 | 1006.7 |
| 20260505121001 | 74 | 45 | 4.0 | 11.0 | 0.00 | 0.00 | 0.00 | 89 | 1006.7 |
| 20260505120901 | 74 | 32 | 4.0 | 11.0 | 0.00 | 0.00 | 0.00 | 89 | 1006.7 |
| 20260505120802 | 74 | 27 | 4.0 | 11.0 | 0.00 | 0.00 | 0.00 | 89 | 1006.6 |
| 20260505120701 | 74 | 35 | 4.0 | 11.0 | 0.00 | 0.00 | 0.00 | 89 | 1006.5 |
| 20260505120601 | 74 | 45 | 4.0 | 15.0 | 0.00 | 0.00 | 0.00 | 89 | 1006.6 |
| 20260505120503 | 74 | 41 | 4.0 | 15.0 | 0.00 | 0.00 | 0.00 | 89 | 1006.6 |
| 20260505120401 | 74 | 0 | 6.0 | 15.0 | 0.00 | 0.00 | 0.00 | 89 | 1006.5 |
| 20260505120300 | 74 | 0 | 6.0 | 15.0 | 0.00 | 0.00 | 0.00 | 89 | 1006.6 |
| 20260505120202 | 74 | 41 | 4.0 | 15.0 | 0.00 | 0.00 | 0.00 | 89 | 1006.6 |
| 20260505120002 | 74 | 37 | 5.0 | 15.0 | 0.00 | 0.00 | 0.00 | 89 | 1006.7 |
| 20260505115901 | 74 | 44 | 5.0 | 15.0 | 0.00 | 0.00 | 0.00 | 89 | 1006.6 |
| 20260505115802 | 74 | 45 | 5.0 | 15.0 | 0.00 | 0.00 | 0.00 | 89 | 1006.6 |
| 20260505115702 | 74 | 39 | 5.0 | 15.0 | 0.00 | 0.00 | 0.00 | 89 | 1006.6 |
| 20260505115601 | 74 | 37 | 4.0 | 14.0 | 0.00 | 0.00 | 0.00 | 89 | 1006.5 |
| 20260505115502 | 74 | 0 | 4.0 | 14.0 | 0.00 | 0.00 | 0.00 | 89 | 1006.6 |
| 20260505115402 | 74 | 30 | 4.0 | 14.0 | 0.00 | 0.00 | 0.00 | 89 | 1006.6 |
| 20260505115300 | 74 | 52 | 5.0 | 14.0 | 0.00 | 0.00 | 0.00 | 89 | 1006.6 |
| 20260505115200 | 74 | 49 | 6.0 | 14.0 | 0.00 | 0.00 | 0.00 | 89 | 1006.6 |
| 20260505115103 | 74 | 44 | 6.0 | 14.0 | 0.00 | 0.00 | 0.00 | 89 | 1006.6 |
| 20260505115000 | 74 | 34 | 5.0 | 14.0 | 0.00 | 0.00 | 0.00 | 89 | 1006.7 |
| 20260505114901 | 74 | 56 | 6.0 | 14.0 | 0.00 | 0.00 | 0.00 | 89 | 1006.7 |
| 20260505114801 | 74 | 44 | 9.0 | 14.0 | 0.00 | 0.00 | 0.00 | 89 | 1006.8 |
| 20260505114702 | 74 | 0 | 8.0 | 14.0 | 0.00 | 0.00 | 0.00 | 89 | 1006.9 |
| 20260505114601 | 74 | 41 | 6.0 | 14.0 | 0.00 | 0.00 | 0.00 | 89 | 1006.9 |
| 20260505114500 | 74 | 0 | 6.0 | 14.0 | 0.00 | 0.00 | 0.00 | 89 | 1006.9 |
| 20260505114402 | 74 | 41 | 6.0 | 14.0 | 0.00 | 0.00 | 0.00 | 89 | 1006.9 |
| 20260505114301 | 73 | 0 | 6.0 | 14.0 | 0.00 | 0.00 | 0.00 | 89 | 1007.0 |
| 20260505114201 | 74 | 0 | 5.0 | 12.0 | 0.00 | 0.00 | 0.00 | 89 | 1007.0 |
| 20260505114100 | 74 | 0 | 5.0 | 12.0 | 0.00 | 0.00 | 0.00 | 89 | 1007.1 |
| 20260505114000 | 73 | 0 | 5.0 | 12.0 | 0.00 | 0.00 | 0.00 | 89 | 1007.1 |
| 20260505113900 | 73 | 0 | 4.0 | 12.0 | 0.00 | 0.00 | 0.00 | 89 | 1007.0 |
| 20260505113800 | 74 | 0 | 2.0 | 12.0 | 0.00 | 0.00 | 0.00 | 89 | 1007.0 |
| 20260505113700 | 73 | 0 | 4.0 | 12.0 | 0.00 | 0.00 | 0.00 | 89 | 1007.1 |
| 20260505113600 | 73 | 32 | 6.0 | 12.0 | 0.00 | 0.00 | 0.00 | 89 | 1006.9 |
| 20260505113501 | 73 | 28 | 4.0 | 11.0 | 0.00 | 0.00 | 0.00 | 89 | 1007.0 |
| 20260505113401 | 73 | 34 | 4.0 | 11.0 | 0.00 | 0.00 | 0.00 | 89 | 1006.9 |
| 20260505113300 | 73 | 42 | 5.0 | 11.0 | 0.00 | 0.00 | 0.00 | 89 | 1006.9 |
| 20260505113200 | 73 | 41 | 5.0 | 11.0 | 0.00 | 0.00 | 0.00 | 90 | 1006.9 |
| 20260505113100 | 73 | 0 | 5.0 | 11.0 | 0.00 | 0.00 | 0.00 | 89 | 1006.9 |
| 20260505113002 | 73 | 0 | 6.0 | 11.0 | 0.00 | 0.00 | 0.00 | 89 | 1006.9 |
| 20260505112901 | 73 | 39 | 5.0 | 11.0 | 0.00 | 0.00 | 0.00 | 89 | 1006.9 |
| 20260505112800 | 73 | 47 | 5.0 | 11.0 | 0.00 | 0.00 | 0.00 | 89 | 1006.9 |
| 20260505112701 | 73 | 39 | 4.0 | 9.0 | 0.00 | 0.00 | 0.00 | 89 | 1006.8 |
| 20260505112602 | 73 | 47 | 4.0 | 9.0 | 0.00 | 0.00 | 0.00 | 89 | 1006.8 |
| 20260505112501 | 73 | 0 | 5.0 | 9.0 | 0.00 | 0.00 | 0.00 | 89 | 1006.7 |
| 20260505112400 | 73 | 44 | 4.0 | 10.0 | 0.00 | 0.00 | 0.00 | 89 | 1006.7 |
| 20260505112301 | 73 | 41 | 3.0 | 10.0 | 0.00 | 0.00 | 0.00 | 89 | 1006.7 |
| 20260505112200 | 73 | 42 | 2.0 | 10.0 | 0.00 | 0.00 | 0.00 | 89 | 1006.7 |
| 20260505112100 | 73 | 35 | 4.0 | 10.0 | 0.00 | 0.00 | 0.00 | 89 | 1006.7 |
| 20260505112000 | 73 | 41 | 5.0 | 10.0 | 0.00 | 0.00 | 0.00 | 89 | 1006.8 |
| 20260505111900 | 73 | 45 | 4.0 | 10.0 | 0.00 | 0.00 | 0.00 | 89 | 1006.7 |
| 20260505111800 | 73 | 41 | 4.0 | 10.0 | 0.00 | 0.00 | 0.00 | 90 | 1006.7 |
| 20260505111701 | 73 | 44 | 3.0 | 10.0 | 0.00 | 0.00 | 0.00 | 89 | 1006.7 |
| 20260505111602 | 73 | 42 | 4.0 | 10.0 | 0.00 | 0.00 | 0.00 | 89 | 1006.7 |
| 20260505111501 | 73 | 0 | 4.0 | 10.0 | 0.00 | 0.00 | 0.00 | 89 | 1006.7 |
| 20260505111400 | 73 | 42 | 4.0 | 9.0 | 0.00 | 0.00 | 0.00 | 89 | 1006.8 |
| 20260505111301 | 73 | 47 | 3.0 | 7.0 | 0.00 | 0.00 | 0.00 | 89 | 1006.7 |
| 20260505111201 | 73 | 32 | 2.0 | 9.0 | 0.00 | 0.00 | 0.00 | 89 | 1006.7 |
| 20260505111101 | 73 | 31 | 3.0 | 9.0 | 0.00 | 0.00 | 0.00 | 89 | 1006.6 |
| 20260505111002 | 73 | 32 | 2.0 | 10.0 | 0.00 | 0.00 | 0.00 | 89 | 1006.6 |
| 20260505110902 | 73 | 25 | 1.0 | 10.0 | 0.00 | 0.00 | 0.00 | 90 | 1006.5 |
| 20260505110800 | 73 | 32 | 2.0 | 10.0 | 0.00 | 0.00 | 0.00 | 90 | 1006.5 |
| 20260505110659 | 73 | 30 | 3.0 | 10.0 | 0.00 | 0.00 | 0.00 | 90 | 1006.6 |
| 20260505110559 | 73 | 21 | 3.0 | 10.0 | 0.00 | 0.00 | 0.00 | 90 | 1006.5 |
| 20260505110500 | 73 | 42 | 4.0 | 10.0 | 0.00 | 0.00 | 0.00 | 89 | 1006.5 |
| 20260505110359 | 73 | 47 | 4.0 | 10.0 | 0.00 | 0.00 | 0.00 | 89 | 1006.6 |
| 20260505110259 | 73 | 48 | 3.0 | 10.0 | 0.00 | 0.00 | 0.00 | 90 | 1006.7 |
| 20260505110201 | 73 | 34 | 4.0 | 10.0 | 0.00 | 0.00 | 0.00 | 90 | 1006.7 |
| 20260505102159 | 73 | 35 | 2.0 | 13.0 | 0.00 | 0.00 | 0.00 | 90 | 1006.6 |
| 20260505102101 | 73 | 35 | 4.0 | 13.0 | 0.00 | 0.00 | 0.00 | 90 | 1006.6 |
| 20260505102000 | 73 | 48 | 6.0 | 13.0 | 0.00 | 0.00 | 0.00 | 90 | 1006.7 |
| 20260505101858 | 73 | 45 | 5.0 | 13.0 | 0.00 | 0.00 | 0.00 | 90 | 1006.7 |
| 20260505101759 | 73 | 44 | 4.0 | 7.0 | 0.00 | 0.00 | 0.00 | 90 | 1006.6 |
| 20260505101659 | 73 | 27 | 3.0 | 5.0 | 0.00 | 0.00 | 0.00 | 90 | 1006.6 |
| 20260505101558 | 73 | 31 | 3.0 | 5.0 | 0.00 | 0.00 | 0.00 | 90 | 1006.7 |
| 20260505101459 | 73 | 34 | 2.0 | 5.0 | 0.00 | 0.00 | 0.00 | 90 | 1006.7 |
| 20260505101359 | 73 | 37 | 1.0 | 9.0 | 0.00 | 0.00 | 0.00 | 89 | 1006.8 |
| 20260505101258 | 73 | 17 | 2.0 | 10.0 | 0.00 | 0.00 | 0.00 | 89 | 1006.8 |
| 20260505101158 | 73 | 31 | 3.0 | 11.0 | 0.00 | 0.00 | 0.00 | 89 | 1006.8 |
| 20260505101058 | 73 | 35 | 3.0 | 11.0 | 0.00 | 0.00 | 0.00 | 90 | 1006.8 |
| 20260505100959 | 73 | 42 | 3.0 | 11.0 | 0.00 | 0.00 | 0.00 | 90 | 1006.9 |
| 20260505100900 | 73 | 44 | 2.0 | 11.0 | 0.00 | 0.00 | 0.00 | 90 | 1006.9 |
| 20260505100758 | 73 | 44 | 1.0 | 11.0 | 0.00 | 0.00 | 0.00 | 90 | 1006.9 |
| 20260505100659 | 73 | 49 | 2.0 | 11.0 | 0.00 | 0.00 | 0.00 | 90 | 1006.9 |
| 20260505100558 | 73 | 41 | 4.0 | 11.0 | 0.00 | 0.00 | 0.00 | 90 | 1006.9 |
| 20260505100458 | 73 | 44 | 5.0 | 11.0 | 0.00 | 0.00 | 0.00 | 90 | 1006.9 |
| 20260505100359 | 73 | 37 | 5.0 | 11.0 | 0.00 | 0.00 | 0.00 | 89 | 1006.9 |
| 20260505100259 | 73 | 39 | 4.0 | 11.0 | 0.00 | 0.00 | 0.00 | 90 | 1006.9 |
| 20260505100158 | 73 | 42 | 4.0 | 12.0 | 0.00 | 0.00 | 0.00 | 90 | 1006.9 |
| 20260505100058 | 72 | 48 | 4.0 | 12.0 | 0.00 | 0.00 | 0.00 | 90 | 1006.9 |
| 20260505100000 | 72 | 44 | 3.0 | 12.0 | 0.00 | 0.00 | 0.00 | 90 | 1006.9 |
| 20260505095858 | 72 | 48 | 2.0 | 12.0 | 0.00 | 0.00 | 0.00 | 90 | 1006.9 |
| 20260505095759 | 72 | 34 | 2.0 | 12.0 | 0.00 | 0.00 | 0.00 | 90 | 1006.8 |
| 20260505095700 | 72 | 39 | 3.0 | 12.0 | 0.00 | 0.00 | 0.00 | 90 | 1006.9 |
| 20260505095559 | 72 | 37 | 4.0 | 12.0 | 0.00 | 0.00 | 0.00 | 90 | 1006.9 |
| 20260505095458 | 72 | 47 | 4.0 | 12.0 | 0.00 | 0.00 | 0.00 | 90 | 1006.8 |
| 20260505095358 | 72 | 28 | 6.0 | 12.0 | 0.00 | 0.00 | 0.00 | 90 | 1006.8 |
| 20260505095300 | 72 | 42 | 6.0 | 12.0 | 0.00 | 0.00 | 0.00 | 90 | 1006.9 |
| 20260505095157 | 72 | 47 | 4.0 | 11.0 | 0.00 | 0.00 | 0.00 | 90 | 1006.9 |
| 20260505095058 | 72 | 35 | 3.0 | 7.0 | 0.00 | 0.00 | 0.00 | 90 | 1006.8 |
| 20260505094959 | 72 | 31 | 4.0 | 7.0 | 0.00 | 0.00 | 0.00 | 90 | 1006.8 |
| 20260505094859 | 72 | 38 | 4.0 | 7.0 | 0.00 | 0.00 | 0.00 | 90 | 1006.8 |
| 20260505094758 | 72 | 35 | 3.0 | 7.0 | 0.00 | 0.00 | 0.00 | 90 | 1006.8 |
| 20260505094658 | 72 | 24 | 4.0 | 7.0 | 0.00 | 0.00 | 0.00 | 90 | 1006.8 |
| 20260505094559 | 72 | 35 | 3.0 | 7.0 | 0.00 | 0.00 | 0.00 | 90 | 1006.8 |
| 20260505094459 | 72 | 35 | 3.0 | 7.0 | 0.00 | 0.00 | 0.00 | 90 | 1006.8 |
| 20260505094358 | 72 | 38 | 3.0 | 7.0 | 0.00 | 0.00 | 0.00 | 90 | 1006.8 |
| 20260505094300 | 72 | 31 | 3.0 | 7.0 | 0.00 | 0.00 | 0.00 | 90 | 1006.7 |
| 20260505094157 | 72 | 30 | 3.0 | 7.0 | 0.00 | 0.00 | 0.00 | 90 | 1006.8 |
| 20260505094057 | 72 | 39 | 3.0 | 9.0 | 0.00 | 0.00 | 0.00 | 90 | 1006.8 |
| 20260505093959 | 72 | 39 | 2.0 | 9.0 | 0.00 | 0.00 | 0.00 | 90 | 1006.8 |
| 20260505093859 | 72 | 32 | 2.0 | 9.0 | 0.00 | 0.00 | 0.00 | 90 | 1006.8 |
| 20260505093757 | 72 | 39 | 3.0 | 9.0 | 0.00 | 0.00 | 0.00 | 90 | 1006.9 |
| 20260505093656 | 72 | 28 | 2.0 | 9.0 | 0.00 | 0.00 | 0.00 | 90 | 1006.9 |
| 20260505093555 | 72 | 37 | 2.0 | 9.0 | 0.00 | 0.00 | 0.00 | 90 | 1007.0 |
| 20260505093453 | 72 | 37 | 3.0 | 9.0 | 0.00 | 0.00 | 0.00 | 90 | 1007.0 |
| 20260505093351 | 72 | 38 | 2.0 | 9.0 | 0.00 | 0.00 | 0.00 | 90 | 1007.0 |
| 20260505093246 | 72 | 37 | 4.0 | 9.0 | 0.00 | 0.00 | 0.00 | 90 | 1007.0 |
| 20260505093144 | 72 | 37 | 4.0 | 9.0 | 0.00 | 0.00 | 0.00 | 90 | 1007.0 |
| 20260505093043 | 72 | 32 | 2.0 | 7.0 | 0.00 | 0.00 | 0.00 | 90 | 1007.0 |
| 20260505092942 | 72 | 32 | 2.0 | 7.0 | 0.00 | 0.00 | 0.00 | 90 | 1007.0 |
| 20260505092839 | 72 | 32 | 2.0 | 7.0 | 0.00 | 0.00 | 0.00 | 90 | 1007.0 |
| 20260505092738 | 72 | 37 | 2.0 | 7.0 | 0.00 | 0.00 | 0.00 | 90 | 1007.0 |
| 20260505092636 | 72 | 38 | 2.0 | 7.0 | 0.00 | 0.00 | 0.00 | 90 | 1007.0 |
| 20260505092536 | 72 | 30 | 2.0 | 7.0 | 0.00 | 0.00 | 0.00 | 90 | 1007.0 |
| 20260505092434 | 72 | 44 | 3.0 | 7.0 | 0.00 | 0.00 | 0.00 | 90 | 1007.0 |
| 20260505092333 | 72 | 35 | 3.0 | 7.0 | 0.00 | 0.00 | 0.00 | 90 | 1007.0 |
| 20260505092232 | 72 | 35 | 3.0 | 9.0 | 0.00 | 0.00 | 0.00 | 90 | 1007.1 |
| 20260505092133 | 72 | 37 | 3.0 | 9.0 | 0.00 | 0.00 | 0.00 | 90 | 1007.1 |
| 20260505092031 | 72 | 44 | 3.0 | 9.0 | 0.00 | 0.00 | 0.00 | 90 | 1007.1 |
| 20260505091930 | 72 | 42 | 3.0 | 9.0 | 0.00 | 0.00 | 0.00 | 90 | 1007.1 |
| 20260505091831 | 72 | 42 | 2.0 | 9.0 | 0.00 | 0.00 | 0.00 | 90 | 1007.0 |
| 20260505091732 | 72 | 38 | 2.0 | 9.0 | 0.00 | 0.00 | 0.00 | 90 | 1007.0 |
| 20260505091631 | 71 | 34 | 2.0 | 9.0 | 0.00 | 0.00 | 0.00 | 90 | 1007.0 |
| 20260505091529 | 72 | 34 | 3.0 | 9.0 | 0.00 | 0.00 | 0.00 | 90 | 1007.1 |
| 20260505091428 | 72 | 0 | 3.0 | 9.0 | 0.00 | 0.00 | 0.00 | 90 | 1007.0 |
| 20260505091326 | 71 | 44 | 2.0 | 9.0 | 0.00 | 0.00 | 0.00 | 90 | 1007.0 |
| 20260505091223 | 71 | 59 | 2.0 | 7.0 | 0.00 | 0.00 | 0.00 | 90 | 1007.1 |
| 20260505091124 | 71 | 39 | 3.0 | 7.0 | 0.00 | 0.00 | 0.00 | 90 | 1007.0 |
| 20260505091021 | 71 | 48 | 2.0 | 10.0 | 0.00 | 0.00 | 0.00 | 90 | 1007.1 |
| 20260505090920 | 72 | 37 | 2.0 | 10.0 | 0.00 | 0.00 | 0.00 | 90 | 1007.1 |
| 20260505090818 | 71 | 37 | 2.0 | 10.0 | 0.00 | 0.00 | 0.00 | 90 | 1007.1 |
| 20260505090718 | 72 | 45 | 2.0 | 10.0 | 0.00 | 0.00 | 0.00 | 90 | 1007.1 |
| 20260505090616 | 72 | 48 | 3.0 | 10.0 | 0.00 | 0.00 | 0.00 | 90 | 1007.1 |
| 20260505090513 | 71 | 31 | 4.0 | 10.0 | 0.00 | 0.00 | 0.00 | 90 | 1007.1 |
| 20260505090413 | 71 | 35 | 4.0 | 10.0 | 0.00 | 0.00 | 0.00 | 89 | 1007.0 |
| 20260505090311 | 72 | 37 | 3.0 | 10.0 | 0.00 | 0.00 | 0.00 | 89 | 1007.1 |
| 20260505090210 | 71 | 31 | 4.0 | 10.0 | 0.00 | 0.00 | 0.00 | 89 | 1007.1 |
| 20260505090108 | 71 | 37 | 4.0 | 10.0 | 0.00 | 0.00 | 0.00 | 89 | 1007.1 |
| 20260505090007 | 71 | 38 | 3.0 | 9.0 | 0.00 | 0.00 | 0.00 | 89 | 1007.2 |
| 20260505085907 | 72 | 42 | 2.0 | 9.0 | 0.00 | 0.00 | 0.00 | 89 | 1007.1 |
| 20260505085805 | 72 | 34 | 3.0 | 9.0 | 0.00 | 0.00 | 0.00 | 89 | 1007.1 |
| 20260505085704 | 72 | 39 | 3.0 | 9.0 | 0.00 | 0.00 | 0.00 | 89 | 1007.1 |
| 20260505085602 | 72 | 27 | 2.0 | 9.0 | 0.00 | 0.00 | 0.00 | 89 | 1007.1 |
| 20260505085505 | 72 | 41 | 4.0 | 9.0 | 0.00 | 0.00 | 0.00 | 89 | 1007.1 |
| 20260505085402 | 72 | 38 | 4.0 | 9.0 | 0.00 | 0.00 | 0.00 | 89 | 1007.0 |
| 20260505085304 | 72 | 18 | 4.0 | 9.0 | 0.00 | 0.00 | 0.00 | 89 | 1007.1 |
| 20260505085202 | 72 | 39 | 4.0 | 9.0 | 0.00 | 0.00 | 0.00 | 89 | 1007.1 |
| 20260505085103 | 72 | 45 | 4.0 | 9.0 | 0.00 | 0.00 | 0.00 | 89 | 1007.1 |
| 20260505085003 | 72 | 34 | 3.0 | 9.0 | 0.00 | 0.00 | 0.00 | 89 | 1007.1 |
| 20260505084902 | 72 | 35 | 3.0 | 9.0 | 0.00 | 0.00 | 0.00 | 89 | 1007.1 |
| 20260505084804 | 72 | 41 | 3.0 | 9.0 | 0.00 | 0.00 | 0.00 | 89 | 1007.0 |
| 20260505084702 | 72 | 38 | 3.0 | 9.0 | 0.00 | 0.00 | 0.00 | 89 | 1007.0 |
| 20260505084602 | 72 | 42 | 4.0 | 9.0 | 0.00 | 0.00 | 0.00 | 89 | 1006.9 |
| 20260505084503 | 72 | 38 | 4.0 | 9.0 | 0.00 | 0.00 | 0.00 | 89 | 1007.0 |
| 20260505084403 | 72 | 20 | 4.0 | 9.0 | 0.00 | 0.00 | 0.00 | 89 | 1007.1 |
| 20260505084302 | 72 | 32 | 4.0 | 9.0 | 0.00 | 0.00 | 0.00 | 89 | 1007.0 |
| 20260505084202 | 72 | 41 | 4.0 | 9.0 | 0.00 | 0.00 | 0.00 | 89 | 1007.1 |
| 20260505084104 | 72 | 45 | 3.0 | 6.0 | 0.00 | 0.00 | 0.00 | 89 | 1007.1 |
| 20260505084003 | 72 | 45 | 3.0 | 6.0 | 0.00 | 0.00 | 0.00 | 89 | 1007.1 |
| 20260505083903 | 72 | 24 | 3.0 | 5.0 | 0.00 | 0.00 | 0.00 | 89 | 1007.1 |
| 20260505083802 | 72 | 32 | 3.0 | 5.0 | 0.00 | 0.00 | 0.00 | 89 | 1007.2 |
| 20260505083703 | 72 | 44 | 3.0 | 5.0 | 0.00 | 0.00 | 0.00 | 89 | 1007.2 |
| 20260505083603 | 72 | 37 | 3.0 | 5.0 | 0.00 | 0.00 | 0.00 | 89 | 1007.2 |
| 20260505083503 | 72 | 47 | 3.0 | 6.0 | 0.00 | 0.00 | 0.00 | 89 | 1007.3 |
| 20260505083402 | 72 | 49 | 3.0 | 9.0 | 0.00 | 0.00 | 0.00 | 89 | 1007.3 |
| 20260505083304 | 72 | 42 | 3.0 | 9.0 | 0.00 | 0.00 | 0.00 | 89 | 1007.3 |
| 20260505083202 | 72 | 41 | 3.0 | 9.0 | 0.00 | 0.00 | 0.00 | 88 | 1007.3 |
| 20260505083102 | 72 | 34 | 3.0 | 9.0 | 0.00 | 0.00 | 0.00 | 88 | 1007.3 |
| 20260505083005 | 72 | 38 | 2.0 | 9.0 | 0.00 | 0.00 | 0.00 | 88 | 1007.3 |
| 20260505082903 | 72 | 41 | 2.0 | 9.0 | 0.00 | 0.00 | 0.00 | 88 | 1007.3 |
| 20260505082802 | 72 | 37 | 3.0 | 9.0 | 0.00 | 0.00 | 0.00 | 88 | 1007.3 |
| 20260505082703 | 72 | 45 | 3.0 | 9.0 | 0.00 | 0.00 | 0.00 | 88 | 1007.2 |
| 20260505082603 | 72 | 48 | 5.0 | 9.0 | 0.00 | 0.00 | 0.00 | 88 | 1007.4 |
| 20260505082504 | 72 | 13 | 5.0 | 9.0 | 0.00 | 0.00 | 0.00 | 88 | 1007.4 |
| 20260505082404 | 72 | 32 | 4.0 | 9.0 | 0.00 | 0.00 | 0.00 | 88 | 1007.4 |
| 20260505082304 | 72 | 41 | 4.0 | 9.0 | 0.00 | 0.00 | 0.00 | 88 | 1007.4 |
| 20260505082202 | 72 | 37 | 4.0 | 9.0 | 0.00 | 0.00 | 0.00 | 88 | 1007.4 |
| 20260505082102 | 72 | 38 | 4.0 | 9.0 | 0.00 | 0.00 | 0.00 | 88 | 1007.3 |
| 20260505082002 | 72 | 45 | 4.0 | 9.0 | 0.00 | 0.00 | 0.00 | 88 | 1007.4 |
| 20260505081903 | 72 | 45 | 5.0 | 9.0 | 0.00 | 0.00 | 0.00 | 88 | 1007.4 |
| 20260505081802 | 72 | 44 | 4.0 | 9.0 | 0.00 | 0.00 | 0.00 | 88 | 1007.4 |
| 20260505081703 | 72 | 39 | 3.0 | 6.0 | 0.00 | 0.00 | 0.00 | 88 | 1007.4 |
| 20260505081603 | 72 | 23 | 3.0 | 6.0 | 0.00 | 0.00 | 0.00 | 88 | 1007.4 |
| 20260505081502 | 72 | 38 | 4.0 | 7.0 | 0.00 | 0.00 | 0.00 | 88 | 1007.4 |
| 20260505081401 | 72 | 38 | 3.0 | 10.0 | 0.00 | 0.00 | 0.00 | 88 | 1007.4 |
| 20260505081303 | 72 | 41 | 3.0 | 10.0 | 0.00 | 0.00 | 0.00 | 88 | 1007.4 |
| 20260505081201 | 72 | 51 | 4.0 | 12.0 | 0.00 | 0.00 | 0.00 | 88 | 1007.4 |
| 20260505081059 | 72 | 37 | 3.0 | 12.0 | 0.00 | 0.00 | 0.00 | 88 | 1007.4 |
| 20260505080958 | 72 | 39 | 4.0 | 12.0 | 0.00 | 0.00 | 0.00 | 88 | 1007.5 |
| 20260505080857 | 72 | 30 | 3.0 | 12.0 | 0.00 | 0.00 | 0.00 | 88 | 1007.6 |
| 20260505080756 | 72 | 45 | 4.0 | 12.0 | 0.00 | 0.00 | 0.00 | 88 | 1007.5 |
| 20260505080655 | 72 | 48 | 5.0 | 12.0 | 0.00 | 0.00 | 0.00 | 88 | 1007.5 |
| 20260505080556 | 72 | 39 | 6.0 | 12.0 | 0.00 | 0.00 | 0.00 | 88 | 1007.5 |
| 20260505080457 | 72 | 44 | 6.0 | 12.0 | 0.00 | 0.00 | 0.00 | 88 | 1007.6 |
| 20260505080356 | 72 | 47 | 6.0 | 12.0 | 0.00 | 0.00 | 0.00 | 88 | 1007.5 |
| 20260505080256 | 72 | 49 | 5.0 | 12.0 | 0.00 | 0.00 | 0.00 | 88 | 1007.5 |
| 20260505080157 | 72 | 35 | 4.0 | 11.0 | 0.00 | 0.00 | 0.00 | 88 | 1007.5 |
| 20260505080056 | 72 | 38 | 6.0 | 11.0 | 0.00 | 0.00 | 0.00 | 88 | 1007.5 |
| 20260505075955 | 72 | 35 | 6.0 | 11.0 | 0.00 | 0.00 | 0.00 | 88 | 1007.4 |
| 20260505075855 | 72 | 49 | 4.0 | 10.0 | 0.00 | 0.00 | 0.00 | 88 | 1007.5 |
| 20260505075756 | 72 | 44 | 4.0 | 10.0 | 0.00 | 0.00 | 0.00 | 88 | 1007.5 |
| 20260505075655 | 72 | 42 | 5.0 | 10.0 | 0.00 | 0.00 | 0.00 | 88 | 1007.4 |
| 20260505075556 | 72 | 42 | 4.0 | 10.0 | 0.00 | 0.00 | 0.00 | 88 | 1007.5 |
| 20260505075456 | 72 | 37 | 4.0 | 10.0 | 0.00 | 0.00 | 0.00 | 88 | 1007.5 |
| 20260505075355 | 72 | 32 | 4.0 | 10.0 | 0.00 | 0.00 | 0.00 | 88 | 1007.5 |
| 20260505075256 | 72 | 18 | 5.0 | 10.0 | 0.00 | 0.00 | 0.00 | 88 | 1007.6 |
| 20260505075157 | 72 | 45 | 5.0 | 10.0 | 0.00 | 0.00 | 0.00 | 88 | 1007.5 |
| 20260505075055 | 72 | 39 | 4.0 | 7.0 | 0.00 | 0.00 | 0.00 | 88 | 1007.5 |
| 20260505074956 | 72 | 54 | 3.0 | 7.0 | 0.00 | 0.00 | 0.00 | 88 | 1007.6 |
| 20260505074855 | 72 | 41 | 3.0 | 7.0 | 0.00 | 0.00 | 0.00 | 88 | 1007.6 |
| 20260505074757 | 71 | 45 | 4.0 | 7.0 | 0.00 | 0.00 | 0.00 | 88 | 1007.7 |
| 20260505074655 | 71 | 39 | 4.0 | 7.0 | 0.00 | 0.00 | 0.00 | 88 | 1007.5 |
| 20260505074555 | 71 | 44 | 3.0 | 7.0 | 0.00 | 0.00 | 0.00 | 88 | 1007.6 |
| 20260505074456 | 71 | 41 | 4.0 | 7.0 | 0.00 | 0.00 | 0.00 | 88 | 1007.6 |
| 20260505074356 | 71 | 42 | 3.0 | 7.0 | 0.00 | 0.00 | 0.00 | 88 | 1007.5 |
| 20260505074255 | 71 | 35 | 3.0 | 7.0 | 0.00 | 0.00 | 0.00 | 88 | 1007.6 |
| 20260505074154 | 71 | 44 | 3.0 | 7.0 | 0.00 | 0.00 | 0.00 | 88 | 1007.6 |
| 20260505074056 | 71 | 38 | 3.0 | 7.0 | 0.00 | 0.00 | 0.00 | 88 | 1007.5 |
| 20260505073955 | 71 | 52 | 4.0 | 7.0 | 0.00 | 0.00 | 0.00 | 88 | 1007.5 |
| 20260505073856 | 71 | 49 | 4.0 | 7.0 | 0.00 | 0.00 | 0.00 | 88 | 1007.5 |
| 20260505073755 | 71 | 48 | 4.0 | 7.0 | 0.00 | 0.00 | 0.00 | 88 | 1007.5 |
| 20260505073654 | 71 | 34 | 4.0 | 6.0 | 0.00 | 0.00 | 0.00 | 88 | 1007.5 |
| 20260505073555 | 71 | 37 | 4.0 | 6.0 | 0.00 | 0.00 | 0.00 | 88 | 1007.5 |
| 20260505073456 | 71 | 44 | 3.0 | 6.0 | 0.00 | 0.00 | 0.00 | 88 | 1007.5 |
| 20260505073356 | 71 | 42 | 2.0 | 6.0 | 0.00 | 0.00 | 0.00 | 88 | 1007.5 |
| 20260505073254 | 71 | 42 | 2.0 | 6.0 | 0.00 | 0.00 | 0.00 | 88 | 1007.6 |
| 20260505073155 | 71 | 45 | 2.0 | 6.0 | 0.00 | 0.00 | 0.00 | 88 | 1007.7 |
| 20260505073056 | 71 | 34 | 3.0 | 6.0 | 0.00 | 0.00 | 0.00 | 88 | 1007.6 |
| 20260505072955 | 71 | 35 | 3.0 | 6.0 | 0.00 | 0.00 | 0.00 | 88 | 1007.6 |
| 20260505072854 | 71 | 25 | 4.0 | 6.0 | 0.00 | 0.00 | 0.00 | 88 | 1007.7 |
| 20260505072755 | 71 | 25 | 4.0 | 6.0 | 0.00 | 0.00 | 0.00 | 88 | 1007.7 |
| 20260505072657 | 71 | 39 | 3.0 | 5.0 | 0.00 | 0.00 | 0.00 | 88 | 1007.7 |
| 20260505072554 | 71 | 38 | 2.0 | 5.0 | 0.00 | 0.00 | 0.00 | 88 | 1007.7 |
| 20260505072455 | 71 | 34 | 2.0 | 5.0 | 0.00 | 0.00 | 0.00 | 88 | 1007.8 |
| 20260505072355 | 71 | 45 | 2.0 | 5.0 | 0.00 | 0.00 | 0.00 | 88 | 1007.7 |
| 20260505072254 | 71 | 38 | 2.0 | 4.0 | 0.00 | 0.00 | 0.00 | 88 | 1007.7 |
| 20260505072155 | 71 | 39 | 2.0 | 4.0 | 0.00 | 0.00 | 0.00 | 88 | 1007.8 |
| 20260505072054 | 71 | 34 | 1.0 | 4.0 | 0.00 | 0.00 | 0.00 | 88 | 1007.7 |
| 20260505071955 | 71 | 34 | 2.0 | 4.0 | 0.00 | 0.00 | 0.00 | 88 | 1007.8 |
| 20260505071854 | 71 | 35 | 2.0 | 5.0 | 0.00 | 0.00 | 0.00 | 88 | 1007.8 |
| 20260505071754 | 71 | 39 | 1.0 | 5.0 | 0.00 | 0.00 | 0.00 | 88 | 1007.9 |
| 20260505071655 | 71 | 37 | 1.0 | 5.0 | 0.00 | 0.00 | 0.00 | 88 | 1007.9 |
| 20260505071555 | 71 | 35 | 1.0 | 5.0 | 0.00 | 0.00 | 0.00 | 88 | 1007.9 |
| 20260505071455 | 71 | 38 | 2.0 | 5.0 | 0.00 | 0.00 | 0.00 | 88 | 1007.9 |
| 20260505071355 | 71 | 45 | 2.0 | 5.0 | 0.00 | 0.00 | 0.00 | 87 | 1007.8 |
| 20260505071256 | 71 | 49 | 2.0 | 5.0 | 0.00 | 0.00 | 0.00 | 88 | 1007.9 |
| 20260505071155 | 71 | 49 | 2.0 | 7.0 | 0.00 | 0.00 | 0.00 | 88 | 1007.8 |
| 20260505071055 | 71 | 49 | 2.0 | 7.0 | 0.00 | 0.00 | 0.00 | 88 | 1007.8 |
| 20260505070935 | 71 | 31 | 2.0 | 7.0 | 0.00 | 0.00 | 0.00 | 88 | 1007.9 |
| 20260505070833 | 71 | 45 | 2.0 | 7.0 | 0.00 | 0.00 | 0.00 | 88 | 1007.9 |
| 20260505070731 | 71 | 34 | 2.0 | 7.0 | 0.00 | 0.00 | 0.00 | 87 | 1007.8 |
| 20260505070630 | 71 | 27 | 2.0 | 7.0 | 0.00 | 0.00 | 0.00 | 87 | 1007.8 |
| 20260505070532 | 71 | 49 | 2.0 | 7.0 | 0.00 | 0.00 | 0.00 | 87 | 1007.8 |
| 20260505070433 | 71 | 31 | 3.0 | 7.0 | 0.00 | 0.00 | 0.00 | 87 | 1007.8 |
| 20260505070331 | 71 | 47 | 3.0 | 7.0 | 0.00 | 0.00 | 0.00 | 87 | 1007.9 |
| 20260505070231 | 71 | 44 | 3.0 | 7.0 | 0.00 | 0.00 | 0.00 | 87 | 1007.9 |
| 20260505070132 | 71 | 45 | 3.0 | 7.0 | 0.00 | 0.00 | 0.00 | 87 | 1008.0 |
| 20260505070033 | 71 | 28 | 2.0 | 6.0 | 0.00 | 0.00 | 0.00 | 87 | 1007.9 |
| 20260505065931 | 71 | 38 | 2.0 | 10.0 | 0.00 | 0.00 | 0.00 | 87 | 1008.0 |
| 20260505065832 | 71 | 27 | 3.0 | 10.0 | 0.00 | 0.00 | 0.00 | 87 | 1008.0 |
| 20260505065732 | 71 | 30 | 3.0 | 10.0 | 0.00 | 0.00 | 0.00 | 87 | 1007.9 |
| 20260505065632 | 71 | 49 | 4.0 | 10.0 | 0.00 | 0.00 | 0.00 | 87 | 1007.9 |
| 20260505065531 | 71 | 45 | 4.0 | 10.0 | 0.00 | 0.00 | 0.00 | 87 | 1007.9 |
| 20260505065434 | 71 | 37 | 4.0 | 10.0 | 0.00 | 0.00 | 0.00 | 87 | 1007.9 |
| 20260505065333 | 71 | 24 | 3.0 | 10.0 | 0.00 | 0.00 | 0.00 | 87 | 1008.0 |
| 20260505065232 | 71 | 31 | 3.0 | 10.0 | 0.00 | 0.00 | 0.00 | 87 | 1007.9 |
| 20260505065131 | 71 | 42 | 4.0 | 10.0 | 0.00 | 0.00 | 0.00 | 87 | 1007.9 |
| 20260505065030 | 71 | 38 | 4.0 | 10.0 | 0.00 | 0.00 | 0.00 | 87 | 1007.9 |
| 20260505064931 | 71 | 39 | 4.0 | 7.0 | 0.00 | 0.00 | 0.00 | 87 | 1008.0 |
| 20260505064831 | 71 | 49 | 3.0 | 7.0 | 0.00 | 0.00 | 0.00 | 87 | 1008.0 |
| 20260505064732 | 71 | 27 | 2.0 | 7.0 | 0.00 | 0.00 | 0.00 | 87 | 1008.0 |
| 20260505064632 | 71 | 31 | 3.0 | 7.0 | 0.00 | 0.00 | 0.00 | 87 | 1008.0 |
| 20260505064530 | 71 | 28 | 4.0 | 7.0 | 0.00 | 0.00 | 0.00 | 87 | 1008.0 |
| 20260505064430 | 71 | 39 | 4.0 | 7.0 | 0.00 | 0.00 | 0.00 | 87 | 1008.0 |
| 20260505064332 | 71 | 30 | 2.0 | 7.0 | 0.00 | 0.00 | 0.00 | 87 | 1008.1 |
| 20260505064232 | 71 | 38 | 2.0 | 7.0 | 0.00 | 0.00 | 0.00 | 87 | 1008.1 |
| 20260505064131 | 71 | 32 | 3.0 | 7.0 | 0.00 | 0.00 | 0.00 | 87 | 1008.1 |
| 20260505064032 | 71 | 44 | 3.0 | 7.0 | 0.00 | 0.00 | 0.00 | 87 | 1008.2 |
| 20260505063931 | 71 | 34 | 3.0 | 7.0 | 0.00 | 0.00 | 0.00 | 87 | 1008.2 |
| 20260505063831 | 71 | 44 | 3.0 | 7.0 | 0.00 | 0.00 | 0.00 | 87 | 1008.3 |
| 20260505063732 | 71 | 38 | 3.0 | 7.0 | 0.00 | 0.00 | 0.00 | 87 | 1008.2 |
| 20260505063632 | 71 | 49 | 3.0 | 7.0 | 0.00 | 0.00 | 0.00 | 87 | 1008.3 |
| 20260505063530 | 71 | 41 | 2.0 | 7.0 | 0.00 | 0.00 | 0.00 | 87 | 1008.2 |
| 20260505063431 | 71 | 47 | 2.0 | 9.0 | 0.00 | 0.00 | 0.00 | 87 | 1008.3 |
| 20260505063333 | 71 | 45 | 3.0 | 9.0 | 0.00 | 0.00 | 0.00 | 87 | 1008.4 |
| 20260505063231 | 71 | 37 | 3.0 | 9.0 | 0.00 | 0.00 | 0.00 | 87 | 1008.4 |
| 20260505063131 | 71 | 44 | 4.0 | 9.0 | 0.00 | 0.00 | 0.00 | 87 | 1008.4 |
| 20260505063032 | 71 | 44 | 4.0 | 9.0 | 0.00 | 0.00 | 0.00 | 87 | 1008.3 |
| 20260505062932 | 71 | 37 | 3.0 | 9.0 | 0.00 | 0.00 | 0.00 | 87 | 1008.3 |
| 20260505062831 | 71 | 52 | 2.0 | 9.0 | 0.00 | 0.00 | 0.00 | 87 | 1008.3 |
| 20260505062731 | 71 | 45 | 3.0 | 9.0 | 0.00 | 0.00 | 0.00 | 87 | 1008.3 |
| 20260505062633 | 71 | 39 | 4.0 | 9.0 | 0.00 | 0.00 | 0.00 | 87 | 1008.3 |
| 20260505062531 | 71 | 45 | 5.0 | 9.0 | 0.00 | 0.00 | 0.00 | 87 | 1008.4 |
| 20260505062431 | 71 | 31 | 4.0 | 9.0 | 0.00 | 0.00 | 0.00 | 87 | 1008.4 |
| 20260505062331 | 71 | 54 | 3.0 | 7.0 | 0.00 | 0.00 | 0.00 | 87 | 1008.4 |
| 20260505062230 | 71 | 35 | 4.0 | 7.0 | 0.00 | 0.00 | 0.00 | 87 | 1008.4 |
| 20260505062131 | 71 | 38 | 4.0 | 7.0 | 0.00 | 0.00 | 0.00 | 87 | 1008.5 |
| 20260505062032 | 71 | 41 | 4.0 | 7.0 | 0.00 | 0.00 | 0.00 | 87 | 1008.5 |
| 20260505061931 | 71 | 47 | 4.0 | 7.0 | 0.00 | 0.00 | 0.00 | 87 | 1008.5 |
| 20260505061831 | 71 | 37 | 4.0 | 7.0 | 0.00 | 0.00 | 0.00 | 87 | 1008.5 |
| 20260505061731 | 71 | 45 | 4.0 | 7.0 | 0.00 | 0.00 | 0.00 | 87 | 1008.5 |
| 20260505061632 | 71 | 48 | 3.0 | 7.0 | 0.00 | 0.00 | 0.00 | 86 | 1008.6 |
| 20260505061532 | 71 | 41 | 2.0 | 7.0 | 0.00 | 0.00 | 0.00 | 86 | 1008.5 |
| 20260505061431 | 71 | 34 | 2.0 | 7.0 | 0.00 | 0.00 | 0.00 | 86 | 1008.6 |
| 20260505061332 | 71 | 18 | 3.0 | 7.0 | 0.00 | 0.00 | 0.00 | 86 | 1008.6 |
| 20260505061233 | 71 | 42 | 3.0 | 7.0 | 0.00 | 0.00 | 0.00 | 86 | 1008.6 |
| 20260505061130 | 71 | 35 | 3.0 | 7.0 | 0.00 | 0.00 | 0.00 | 86 | 1008.6 |
| 20260505061029 | 71 | 31 | 4.0 | 7.0 | 0.00 | 0.00 | 0.00 | 86 | 1008.6 |
| 20260505060927 | 71 | 52 | 4.0 | 7.0 | 0.00 | 0.00 | 0.00 | 86 | 1008.5 |
| 20260505060825 | 71 | 28 | 3.0 | 7.0 | 0.00 | 0.00 | 0.00 | 86 | 1008.6 |
| 20260505060725 | 71 | 45 | 3.0 | 7.0 | 0.00 | 0.00 | 0.00 | 86 | 1008.6 |
| 20260505060620 | 71 | 32 | 3.0 | 7.0 | 0.00 | 0.00 | 0.00 | 86 | 1008.5 |
| 20260505060521 | 71 | 41 | 2.0 | 7.0 | 0.00 | 0.00 | 0.00 | 86 | 1008.5 |
| 20260505060419 | 71 | 18 | 3.0 | 7.0 | 0.00 | 0.00 | 0.00 | 86 | 1008.5 |
| 20260505060319 | 71 | 61 | 4.0 | 7.0 | 0.00 | 0.00 | 0.00 | 86 | 1008.5 |
| 20260505060217 | 71 | 35 | 3.0 | 7.0 | 0.00 | 0.00 | 0.00 | 86 | 1008.5 |
| 20260505060115 | 71 | 41 | 3.0 | 7.0 | 0.00 | 0.00 | 0.00 | 86 | 1008.5 |
| 20260505060015 | 71 | 37 | 3.0 | 7.0 | 0.00 | 0.00 | 0.00 | 86 | 1008.6 |
| 20260505055913 | 71 | 35 | 3.0 | 7.0 | 0.00 | 0.00 | 0.00 | 86 | 1008.6 |
| 20260505055812 | 71 | 42 | 4.0 | 7.0 | 0.00 | 0.00 | 0.00 | 86 | 1008.5 |
| 20260505055710 | 71 | 45 | 4.0 | 7.0 | 0.00 | 0.00 | 0.00 | 86 | 1008.6 |
| 20260505055609 | 71 | 37 | 4.0 | 7.0 | 0.00 | 0.00 | 0.00 | 86 | 1008.5 |
| 20260505055507 | 71 | 47 | 3.0 | 7.0 | 0.00 | 0.00 | 0.00 | 86 | 1008.6 |
| 20260505055407 | 71 | 39 | 3.0 | 7.0 | 0.00 | 0.00 | 0.00 | 86 | 1008.6 |
| 20260505055307 | 71 | 34 | 4.0 | 7.0 | 0.00 | 0.00 | 0.00 | 86 | 1008.5 |
| 20260505055207 | 71 | 37 | 4.0 | 7.0 | 0.00 | 0.00 | 0.00 | 86 | 1008.5 |
| 20260505055104 | 71 | 41 | 3.0 | 7.0 | 0.00 | 0.00 | 0.00 | 86 | 1008.6 |
| 20260505055003 | 71 | 38 | 4.0 | 7.0 | 0.00 | 0.00 | 0.00 | 86 | 1008.5 |
| 20260505054902 | 71 | 49 | 4.0 | 7.0 | 0.00 | 0.00 | 0.00 | 86 | 1008.6 |
| 20260505054801 | 71 | 39 | 3.0 | 6.0 | 0.00 | 0.00 | 0.00 | 86 | 1008.6 |
| 20260505054703 | 71 | 38 | 3.0 | 6.0 | 0.00 | 0.00 | 0.00 | 86 | 1008.6 |
| 20260505054602 | 71 | 37 | 4.0 | 6.0 | 0.00 | 0.00 | 0.00 | 86 | 1008.6 |
| 20260505054504 | 71 | 38 | 3.0 | 6.0 | 0.00 | 0.00 | 0.00 | 85 | 1008.6 |
| 20260505054402 | 71 | 27 | 3.0 | 6.0 | 0.00 | 0.00 | 0.00 | 85 | 1008.6 |
| 20260505054303 | 71 | 25 | 3.0 | 6.0 | 0.00 | 0.00 | 0.00 | 85 | 1008.7 |
| 20260505054202 | 71 | 31 | 3.0 | 6.0 | 0.00 | 0.00 | 0.00 | 85 | 1008.7 |
| 20260505054104 | 71 | 42 | 3.0 | 6.0 | 0.00 | 0.00 | 0.00 | 85 | 1008.7 |
| 20260505054003 | 71 | 44 | 3.0 | 6.0 | 0.00 | 0.00 | 0.00 | 85 | 1008.7 |
| 20260505053902 | 71 | 37 | 3.0 | 6.0 | 0.00 | 0.00 | 0.00 | 85 | 1008.7 |
| 20260505053802 | 71 | 35 | 3.0 | 6.0 | 0.00 | 0.00 | 0.00 | 85 | 1008.7 |
| 20260505053703 | 71 | 32 | 3.0 | 6.0 | 0.00 | 0.00 | 0.00 | 85 | 1008.7 |
| 20260505053603 | 71 | 30 | 3.0 | 6.0 | 0.00 | 0.00 | 0.00 | 85 | 1008.7 |
| 20260505053502 | 71 | 44 | 2.0 | 6.0 | 0.00 | 0.00 | 0.00 | 85 | 1008.7 |
| 20260505053402 | 71 | 49 | 2.0 | 6.0 | 0.00 | 0.00 | 0.00 | 85 | 1008.8 |
| 20260505053303 | 71 | 41 | 2.0 | 6.0 | 0.00 | 0.00 | 0.00 | 85 | 1008.8 |
| 20260505053202 | 71 | 48 | 2.0 | 7.0 | 0.00 | 0.00 | 0.00 | 85 | 1008.8 |
| 20260505053103 | 71 | 38 | 2.0 | 7.0 | 0.00 | 0.00 | 0.00 | 85 | 1008.9 |
| 20260505053002 | 71 | 27 | 3.0 | 7.0 | 0.00 | 0.00 | 0.00 | 85 | 1008.9 |
| 20260505052903 | 71 | 42 | 4.0 | 7.0 | 0.00 | 0.00 | 0.00 | 85 | 1009.0 |
| 20260505052803 | 71 | 48 | 4.0 | 7.0 | 0.00 | 0.00 | 0.00 | 85 | 1008.9 |
| 20260505052702 | 71 | 42 | 3.0 | 7.0 | 0.00 | 0.00 | 0.00 | 85 | 1008.9 |
| 20260505052602 | 71 | 42 | 3.0 | 7.0 | 0.00 | 0.00 | 0.00 | 85 | 1008.9 |
| 20260505052502 | 71 | 52 | 3.0 | 7.0 | 0.00 | 0.00 | 0.00 | 85 | 1008.9 |
| 20260505052402 | 71 | 48 | 3.0 | 7.0 | 0.00 | 0.00 | 0.00 | 85 | 1008.9 |
| 20260505052304 | 71 | 45 | 3.0 | 7.0 | 0.00 | 0.00 | 0.00 | 85 | 1008.9 |
| 20260505052202 | 71 | 47 | 2.0 | 9.0 | 0.00 | 0.00 | 0.00 | 85 | 1008.9 |
| 20260505052104 | 71 | 39 | 2.0 | 9.0 | 0.00 | 0.00 | 0.00 | 84 | 1008.9 |
| 20260505052002 | 72 | 42 | 3.0 | 9.0 | 0.00 | 0.00 | 0.00 | 84 | 1008.9 |
| 20260505051901 | 72 | 39 | 3.0 | 11.0 | 0.00 | 0.00 | 0.00 | 84 | 1009.0 |
| 20260505051802 | 72 | 45 | 3.0 | 11.0 | 0.00 | 0.00 | 0.00 | 84 | 1008.9 |
| 20260505051702 | 72 | 44 | 4.0 | 11.0 | 0.00 | 0.00 | 0.00 | 84 | 1009.0 |
| 20260505051604 | 72 | 45 | 4.0 | 11.0 | 0.00 | 0.00 | 0.00 | 84 | 1008.9 |
| 20260505051504 | 72 | 44 | 4.0 | 11.0 | 0.00 | 0.00 | 0.00 | 84 | 1009.0 |
| 20260505051402 | 72 | 41 | 5.0 | 11.0 | 0.00 | 0.00 | 0.00 | 84 | 1009.0 |
| 20260505051302 | 72 | 42 | 4.0 | 11.0 | 0.00 | 0.00 | 0.00 | 84 | 1009.0 |
| 20260505051203 | 72 | 47 | 3.0 | 11.0 | 0.00 | 0.00 | 0.00 | 84 | 1009.0 |
| 20260505051102 | 72 | 35 | 4.0 | 11.0 | 0.00 | 0.00 | 0.00 | 84 | 1009.0 |
| 20260505051002 | 72 | 49 | 4.0 | 11.0 | 0.00 | 0.00 | 0.00 | 84 | 1008.9 |
| 20260505050903 | 72 | 41 | 4.0 | 7.0 | 0.00 | 0.00 | 0.00 | 84 | 1008.9 |
| 20260505050803 | 72 | 35 | 4.0 | 7.0 | 0.00 | 0.00 | 0.00 | 84 | 1008.8 |
| 20260505050702 | 72 | 38 | 3.0 | 7.0 | 0.00 | 0.00 | 0.00 | 84 | 1008.9 |
| 20260505050603 | 72 | 39 | 3.0 | 10.0 | 0.00 | 0.00 | 0.00 | 84 | 1008.9 |
| 20260505050503 | 72 | 51 | 3.0 | 10.0 | 0.00 | 0.00 | 0.00 | 84 | 1008.9 |
| 20260505050402 | 72 | 49 | 3.0 | 10.0 | 0.00 | 0.00 | 0.00 | 84 | 1008.9 |
| 20260505050303 | 72 | 48 | 3.0 | 12.0 | 0.00 | 0.00 | 0.00 | 84 | 1008.9 |
| 20260505050203 | 72 | 37 | 4.0 | 12.0 | 0.00 | 0.00 | 0.00 | 83 | 1008.9 |
| 20260505041750 | 72 | 49 | 6.0 | 12.0 | 0.00 | 0.00 | 0.00 | 82 | 1008.8 |
| 20260505041651 | 72 | 80 | 6.0 | 12.0 | 0.00 | 0.00 | 0.00 | 82 | 1008.8 |
| 20260505041551 | 72 | 61 | 4.0 | 12.0 | 0.00 | 0.00 | 0.00 | 82 | 1008.8 |
| 20260505041450 | 73 | 51 | 5.0 | 12.0 | 0.00 | 0.00 | 0.00 | 81 | 1008.7 |
| 20260505041351 | 73 | 59 | 5.0 | 12.0 | 0.00 | 0.00 | 0.00 | 81 | 1008.8 |
| 20260505041252 | 73 | 51 | 5.0 | 12.0 | 0.00 | 0.00 | 0.00 | 81 | 1008.8 |
| 20260505041152 | 73 | 44 | 6.0 | 12.0 | 0.00 | 0.00 | 0.00 | 81 | 1008.8 |
| 20260505041051 | 73 | 56 | 6.0 | 12.0 | 0.00 | 0.00 | 0.00 | 81 | 1008.9 |
| 20260505040950 | 73 | 18 | 5.0 | 13.0 | 0.00 | 0.00 | 0.00 | 81 | 1009.0 |
| 20260505040850 | 73 | 51 | 6.0 | 13.0 | 0.00 | 0.00 | 0.00 | 81 | 1009.1 |
| 20260505040749 | 73 | 66 | 6.0 | 13.0 | 0.00 | 0.00 | 0.00 | 81 | 1009.1 |
| 20260505040647 | 73 | 63 | 6.0 | 13.0 | 0.00 | 0.00 | 0.00 | 81 | 1009.2 |
| 20260505040547 | 73 | 42 | 5.0 | 13.0 | 0.00 | 0.00 | 0.00 | 81 | 1009.2 |
| 20260505040445 | 73 | 39 | 4.0 | 13.0 | 0.00 | 0.00 | 0.00 | 81 | 1009.1 |
| 20260505040343 | 73 | 66 | 6.0 | 13.0 | 0.00 | 0.00 | 0.00 | 81 | 1009.2 |
| 20260505040241 | 73 | 42 | 6.0 | 13.0 | 0.00 | 0.00 | 0.00 | 80 | 1009.2 |
| 20260505040140 | 73 | 63 | 6.0 | 13.0 | 0.00 | 0.00 | 0.00 | 80 | 1009.3 |
| 20260505040040 | 73 | 65 | 5.0 | 19.0 | 0.00 | 0.00 | 0.00 | 80 | 1009.3 |
| 20260505035938 | 73 | 63 | 5.0 | 19.0 | 0.00 | 0.00 | 0.00 | 80 | 1009.3 |
| 20260505035835 | 73 | 32 | 7.0 | 19.0 | 0.00 | 0.00 | 0.00 | 80 | 1009.3 |
| 20260505035734 | 73 | 0 | 8.0 | 19.0 | 0.00 | 0.00 | 0.00 | 80 | 1009.2 |
| 20260505035631 | 73 | 56 | 6.0 | 19.0 | 0.00 | 0.00 | 0.00 | 80 | 1009.2 |
| 20260505035532 | 73 | 63 | 6.0 | 19.0 | 0.00 | 0.00 | 0.00 | 80 | 1009.1 |
| 20260505035431 | 73 | 56 | 6.0 | 19.0 | 0.00 | 0.00 | 0.00 | 80 | 1009.3 |
| 20260505035333 | 73 | 55 | 7.0 | 19.0 | 0.00 | 0.00 | 0.00 | 80 | 1009.2 |
| 20260505035232 | 74 | 55 | 9.0 | 19.0 | 0.00 | 0.00 | 0.00 | 80 | 1009.2 |
| 20260505035132 | 74 | 72 | 9.0 | 19.0 | 0.00 | 0.00 | 0.00 | 80 | 1009.2 |
| 20260505035031 | 74 | 63 | 7.0 | 16.0 | 0.00 | 0.00 | 0.00 | 80 | 1009.2 |
| 20260505034934 | 74 | 0 | 6.0 | 16.0 | 0.00 | 0.00 | 0.00 | 80 | 1009.1 |
| 20260505034831 | 74 | 85 | 6.0 | 15.0 | 0.00 | 0.00 | 0.00 | 80 | 1009.1 |
| 20260505034731 | 74 | 0 | 7.0 | 15.0 | 0.00 | 0.00 | 0.00 | 80 | 1009.1 |
| 20260505034632 | 74 | 69 | 7.0 | 13.0 | 0.00 | 0.00 | 0.00 | 80 | 1009.2 |
| 20260505034530 | 74 | 92 | 6.0 | 12.0 | 0.00 | 0.00 | 0.00 | 80 | 1009.3 |
| 20260505034430 | 74 | 61 | 5.0 | 12.0 | 0.00 | 0.00 | 0.00 | 80 | 1009.4 |
| 20260505034327 | 74 | 71 | 5.0 | 12.0 | 0.00 | 0.00 | 0.00 | 80 | 1009.4 |
| 20260505034227 | 74 | 62 | 7.0 | 15.0 | 0.00 | 0.00 | 0.00 | 80 | 1009.4 |
| 20260505034125 | 74 | 35 | 6.0 | 15.0 | 0.00 | 0.00 | 0.00 | 80 | 1009.4 |
| 20260505034025 | 74 | 59 | 4.0 | 15.0 | 0.00 | 0.00 | 0.00 | 79 | 1009.4 |
| 20260505033921 | 74 | 83 | 5.0 | 15.0 | 0.00 | 0.00 | 0.00 | 79 | 1009.5 |
| 20260505033820 | 74 | 41 | 7.0 | 15.0 | 0.00 | 0.00 | 0.00 | 79 | 1009.4 |
| 20260505033719 | 74 | 25 | 7.0 | 15.0 | 0.00 | 0.00 | 0.00 | 79 | 1009.4 |
| 20260505033617 | 74 | 66 | 8.0 | 15.0 | 0.00 | 0.00 | 0.00 | 79 | 1009.5 |
| 20260505033516 | 74 | 63 | 8.0 | 15.0 | 0.00 | 0.00 | 0.00 | 79 | 1009.4 |
| 20260505033413 | 74 | 76 | 8.0 | 15.0 | 0.00 | 0.00 | 0.00 | 79 | 1009.4 |
| 20260505033313 | 74 | 83 | 8.0 | 15.0 | 0.00 | 0.00 | 0.00 | 79 | 1009.5 |
| 20260505033212 | 74 | 61 | 6.0 | 14.0 | 0.00 | 0.00 | 0.00 | 79 | 1009.4 |
| 20260505033109 | 74 | 72 | 7.0 | 18.0 | 0.00 | 0.00 | 0.00 | 79 | 1009.3 |
| 20260505033009 | 74 | 68 | 8.0 | 18.0 | 0.00 | 0.00 | 0.00 | 79 | 1009.3 |
| 20260505032907 | 74 | 78 | 7.0 | 18.0 | 0.00 | 0.00 | 0.00 | 79 | 1009.3 |
| 20260505032805 | 74 | 71 | 5.0 | 18.0 | 0.00 | 0.00 | 0.00 | 79 | 1009.3 |
| 20260505032704 | 74 | 0 | 6.0 | 18.0 | 0.00 | 0.00 | 0.00 | 79 | 1009.4 |
| 20260505032603 | 74 | 0 | 6.0 | 18.0 | 0.00 | 0.00 | 0.00 | 79 | 1009.4 |
| 20260505032502 | 74 | 71 | 5.0 | 18.0 | 0.00 | 0.00 | 0.00 | 79 | 1009.3 |
| 20260505032402 | 74 | 56 | 6.0 | 18.0 | 0.00 | 0.00 | 0.00 | 79 | 1009.4 |
| 20260505032304 | 74 | 63 | 9.0 | 18.0 | 0.00 | 0.00 | 0.00 | 79 | 1009.3 |
| 20260505032202 | 74 | 86 | 9.0 | 18.0 | 0.00 | 0.00 | 0.00 | 79 | 1009.3 |
| 20260505032101 | 74 | 0 | 7.0 | 15.0 | 0.00 | 0.00 | 0.00 | 79 | 1009.3 |
| 20260505032002 | 74 | 0 | 6.0 | 15.0 | 0.00 | 0.00 | 0.00 | 79 | 1009.4 |
| 20260505031904 | 74 | 73 | 5.0 | 15.0 | 0.00 | 0.00 | 0.00 | 79 | 1009.4 |
| 20260505031804 | 74 | 45 | 6.0 | 15.0 | 0.00 | 0.00 | 0.00 | 79 | 1009.3 |
| 20260505031702 | 74 | 80 | 7.0 | 15.0 | 0.00 | 0.00 | 0.00 | 79 | 1009.3 |
| 20260505031603 | 74 | 39 | 7.0 | 15.0 | 0.00 | 0.00 | 0.00 | 79 | 1009.2 |
| 20260505031502 | 74 | 80 | 7.0 | 15.0 | 0.00 | 0.00 | 0.00 | 79 | 1009.3 |
| 20260505031403 | 74 | 72 | 8.0 | 15.0 | 0.00 | 0.00 | 0.00 | 79 | 1009.3 |
| 20260505031303 | 74 | 65 | 7.0 | 15.0 | 0.00 | 0.00 | 0.00 | 79 | 1009.3 |
| 20260505031204 | 74 | 75 | 7.0 | 16.0 | 0.00 | 0.00 | 0.00 | 79 | 1009.2 |
| 20260505031102 | 74 | 79 | 9.0 | 17.0 | 0.00 | 0.00 | 0.00 | 79 | 1009.2 |
| 20260505031002 | 74 | 62 | 7.0 | 17.0 | 0.00 | 0.00 | 0.00 | 79 | 1009.3 |
| 20260505030903 | 74 | 71 | 6.0 | 17.0 | 0.00 | 0.00 | 0.00 | 79 | 1009.3 |
| 20260505030802 | 74 | 16 | 5.0 | 17.0 | 0.00 | 0.00 | 0.00 | 79 | 1009.2 |
| 20260505030702 | 74 | 69 | 6.0 | 17.0 | 0.00 | 0.00 | 0.00 | 79 | 1009.2 |
| 20260505030604 | 74 | 71 | 6.0 | 17.0 | 0.00 | 0.00 | 0.00 | 79 | 1009.2 |
| 20260505030502 | 74 | 68 | 6.0 | 17.0 | 0.00 | 0.00 | 0.00 | 79 | 1009.1 |
| 20260505030402 | 74 | 75 | 7.0 | 17.0 | 0.00 | 0.00 | 0.00 | 79 | 1009.2 |
| 20260505030304 | 74 | 58 | 9.0 | 17.0 | 0.00 | 0.00 | 0.00 | 79 | 1009.1 |
| 20260505030202 | 74 | 73 | 8.0 | 17.0 | 0.00 | 0.00 | 0.00 | 79 | 1009.1 |
| 20260505030004 | 74 | 68 | 7.0 | 15.0 | 0.00 | 0.00 | 0.00 | 79 | 1009.2 |
| 20260505025903 | 74 | 55 | 7.0 | 15.0 | 0.00 | 0.00 | 0.00 | 79 | 1009.1 |
| 20260505025803 | 74 | 72 | 7.0 | 15.0 | 0.00 | 0.00 | 0.00 | 79 | 1009.2 |
| 20260505025702 | 74 | 62 | 5.0 | 15.0 | 0.00 | 0.00 | 0.00 | 79 | 1009.1 |
| 20260505025604 | 74 | 52 | 6.0 | 15.0 | 0.00 | 0.00 | 0.00 | 79 | 1009.2 |
| 20260505025503 | 74 | 61 | 7.0 | 15.0 | 0.00 | 0.00 | 0.00 | 79 | 1009.2 |
| 20260505025402 | 74 | 78 | 7.0 | 15.0 | 0.00 | 0.00 | 0.00 | 79 | 1009.2 |
| 20260505025304 | 74 | 80 | 7.0 | 15.0 | 0.00 | 0.00 | 0.00 | 79 | 1009.2 |
| 20260505025203 | 74 | 87 | 9.0 | 15.0 | 0.00 | 0.00 | 0.00 | 79 | 1009.3 |
| 20260505025104 | 74 | 59 | 8.0 | 15.0 | 0.00 | 0.00 | 0.00 | 79 | 1009.2 |
| 20260505025004 | 74 | 63 | 5.0 | 15.0 | 0.00 | 0.00 | 0.00 | 79 | 1009.3 |
| 20260505024904 | 74 | 0 | 6.0 | 15.0 | 0.00 | 0.00 | 0.00 | 79 | 1009.4 |
| 20260505024802 | 74 | 69 | 6.0 | 15.0 | 0.00 | 0.00 | 0.00 | 79 | 1009.3 |
| 20260505024702 | 74 | 79 | 5.0 | 15.0 | 0.00 | 0.00 | 0.00 | 79 | 1009.3 |
| 20260505024602 | 74 | 44 | 5.0 | 15.0 | 0.00 | 0.00 | 0.00 | 79 | 1009.4 |
| 20260505024503 | 74 | 62 | 6.0 | 15.0 | 0.00 | 0.00 | 0.00 | 79 | 1009.3 |
| 20260505024403 | 74 | 59 | 8.0 | 15.0 | 0.00 | 0.00 | 0.00 | 79 | 1009.3 |
| 20260505024303 | 74 | 61 | 8.0 | 15.0 | 0.00 | 0.00 | 0.00 | 79 | 1009.3 |
| 20260505024202 | 74 | 72 | 6.0 | 15.0 | 0.00 | 0.00 | 0.00 | 79 | 1009.3 |
| 20260505024103 | 74 | 87 | 7.0 | 15.0 | 0.00 | 0.00 | 0.00 | 79 | 1009.3 |
| 20260505024003 | 74 | 76 | 8.0 | 15.0 | 0.00 | 0.00 | 0.00 | 79 | 1009.3 |
| 20260505023902 | 74 | 76 | 8.0 | 15.0 | 0.00 | 0.00 | 0.00 | 79 | 1009.3 |
| 20260505023803 | 74 | 72 | 9.0 | 15.0 | 0.00 | 0.00 | 0.00 | 78 | 1009.2 |
| 20260505023702 | 74 | 69 | 8.0 | 15.0 | 0.00 | 0.00 | 0.00 | 78 | 1009.3 |
| 20260505023602 | 74 | 73 | 5.0 | 15.0 | 0.00 | 0.00 | 0.00 | 78 | 1009.3 |
| 20260505023504 | 74 | 39 | 4.0 | 15.0 | 0.00 | 0.00 | 0.00 | 78 | 1009.3 |
| 20260505023402 | 74 | 66 | 4.0 | 15.0 | 0.00 | 0.00 | 0.00 | 78 | 1009.2 |
| 20260505023302 | 74 | 62 | 5.0 | 15.0 | 0.00 | 0.00 | 0.00 | 78 | 1009.2 |
| 20260505023203 | 74 | 79 | 7.0 | 15.0 | 0.00 | 0.00 | 0.00 | 78 | 1009.3 |
| 20260505023103 | 74 | 71 | 9.0 | 15.0 | 0.00 | 0.00 | 0.00 | 78 | 1009.2 |
| 20260505023004 | 74 | 148 | 10.0 | 15.0 | 0.00 | 0.00 | 0.00 | 78 | 1009.2 |
| 20260505022902 | 74 | 100 | 10.0 | 15.0 | 0.00 | 0.00 | 0.00 | 78 | 1009.2 |
| 20260505022803 | 74 | 97 | 8.0 | 20.0 | 0.00 | 0.00 | 0.00 | 78 | 1009.2 |
| 20260505022704 | 74 | 97 | 8.0 | 20.0 | 0.00 | 0.00 | 0.00 | 78 | 1009.2 |
| 20260505022603 | 74 | 97 | 8.0 | 20.0 | 0.00 | 0.00 | 0.00 | 78 | 1009.2 |
| 20260505022503 | 74 | 97 | 8.0 | 20.0 | 0.00 | 0.00 | 0.00 | 78 | 1009.2 |
| 20260505022403 | 74 | 97 | 8.0 | 20.0 | 0.00 | 0.00 | 0.00 | 78 | 1009.2 |
| 20260505022304 | 74 | 66 | 7.0 | 20.0 | 0.00 | 0.00 | 0.00 | 78 | 1009.1 |
| 20260505022204 | 74 | 89 | 6.0 | 20.0 | 0.00 | 0.00 | 0.00 | 78 | 1009.1 |
| 20260505022103 | 74 | 86 | 5.0 | 20.0 | 0.00 | 0.00 | 0.00 | 78 | 1009.1 |
| 20260505022002 | 74 | 61 | 9.0 | 20.0 | 0.00 | 0.00 | 0.00 | 77 | 1009.1 |
| 20260505021903 | 74 | 111 | 9.0 | 20.0 | 0.00 | 0.00 | 0.00 | 77 | 1009.1 |
| 20260505021803 | 74 | 114 | 9.0 | 18.0 | 0.00 | 0.00 | 0.00 | 77 | 1009.1 |
| 20260505021703 | 74 | 106 | 9.0 | 18.0 | 0.00 | 0.00 | 0.00 | 77 | 1009.1 |
| 20260505021603 | 74 | 49 | 8.0 | 18.0 | 0.00 | 0.00 | 0.00 | 77 | 1009.0 |
| 20260505021503 | 74 | 97 | 9.0 | 18.0 | 0.00 | 0.00 | 0.00 | 77 | 1009.0 |
| 20260505021403 | 74 | 75 | 9.0 | 18.0 | 0.00 | 0.00 | 0.00 | 77 | 1009.0 |
| 20260505021303 | 74 | 69 | 8.0 | 15.0 | 0.00 | 0.00 | 0.00 | 77 | 1009.0 |
| 20260505021201 | 74 | 114 | 9.0 | 15.0 | 0.00 | 0.00 | 0.00 | 77 | 1009.1 |
| 20260505021104 | 74 | 134 | 9.0 | 14.0 | 0.00 | 0.00 | 0.00 | 77 | 1009.1 |
| 20260505021003 | 74 | 118 | 9.0 | 16.0 | 0.00 | 0.00 | 0.00 | 77 | 1009.2 |
| 20260505020903 | 74 | 87 | 7.0 | 16.0 | 0.00 | 0.00 | 0.00 | 77 | 1009.2 |
| 20260505020803 | 74 | 110 | 6.0 | 16.0 | 0.00 | 0.00 | 0.00 | 77 | 1009.2 |
| 20260505020702 | 74 | 114 | 5.0 | 16.0 | 0.00 | 0.00 | 0.00 | 77 | 1009.2 |
| 20260505020602 | 74 | 97 | 6.0 | 16.0 | 0.00 | 0.00 | 0.00 | 77 | 1009.1 |
| 20260505020502 | 74 | 97 | 6.0 | 16.0 | 0.00 | 0.00 | 0.00 | 77 | 1009.1 |
| 20260505020404 | 74 | 96 | 7.0 | 19.0 | 0.00 | 0.00 | 0.00 | 77 | 1009.1 |
| 20260505020303 | 74 | 96 | 7.0 | 19.0 | 0.00 | 0.00 | 0.00 | 77 | 1009.1 |
| 20260505020204 | 74 | 96 | 7.0 | 19.0 | 0.00 | 0.00 | 0.00 | 77 | 1009.1 |
| 20260505020104 | 74 | 96 | 7.0 | 19.0 | 0.00 | 0.00 | 0.00 | 77 | 1009.0 |
| 20260505020004 | 74 | 47 | 5.0 | 19.0 | 0.00 | 0.00 | 0.00 | 77 | 1009.0 |
| 20260505015902 | 74 | 96 | 8.0 | 19.0 | 0.00 | 0.00 | 0.00 | 77 | 1009.0 |
| 20260505015804 | 74 | 93 | 10.0 | 19.0 | 0.00 | 0.00 | 0.00 | 77 | 1009.0 |
| 20260505015702 | 75 | 93 | 9.0 | 19.0 | 0.00 | 0.00 | 0.00 | 77 | 1009.0 |
| 20260505015602 | 75 | 90 | 9.0 | 19.0 | 0.00 | 0.00 | 0.00 | 77 | 1009.0 |
| 20260505015503 | 75 | 63 | 10.0 | 19.0 | 0.00 | 0.00 | 0.00 | 77 | 1009.0 |
| 20260505015404 | 75 | 83 | 9.0 | 16.0 | 0.00 | 0.00 | 0.00 | 76 | 1009.0 |
| 20260505015303 | 75 | 89 | 7.0 | 15.0 | 0.00 | 0.00 | 0.00 | 77 | 1009.0 |
| 20260505015203 | 75 | 99 | 6.0 | 18.0 | 0.00 | 0.00 | 0.00 | 77 | 1009.0 |
| 20260505015103 | 75 | 118 | 5.0 | 18.0 | 0.00 | 0.00 | 0.00 | 76 | 1009.0 |
| 20260505015004 | 75 | 86 | 5.0 | 18.0 | 0.00 | 0.00 | 0.00 | 76 | 1009.0 |
| 20260505014902 | 75 | 110 | 5.0 | 18.0 | 0.00 | 0.00 | 0.00 | 76 | 1008.9 |
| 20260505014802 | 75 | 104 | 6.0 | 18.0 | 0.00 | 0.00 | 0.00 | 76 | 1008.9 |
| 20260505014702 | 75 | 93 | 8.0 | 18.0 | 0.00 | 0.00 | 0.00 | 76 | 1008.9 |
| 20260505014602 | 75 | 100 | 8.0 | 19.0 | 0.00 | 0.00 | 0.00 | 76 | 1008.8 |
| 20260505014502 | 75 | 221 | 8.0 | 19.0 | 0.00 | 0.00 | 0.00 | 76 | 1008.9 |
| 20260505014403 | 75 | 165 | 10.0 | 19.0 | 0.00 | 0.00 | 0.00 | 76 | 1008.9 |
| 20260505014302 | 75 | 172 | 10.0 | 19.0 | 0.00 | 0.00 | 0.00 | 76 | 1008.9 |
| 20260505014202 | 75 | 182 | 7.0 | 19.0 | 0.00 | 0.00 | 0.00 | 76 | 1008.9 |
| 20260505014103 | 75 | 175 | 6.0 | 19.0 | 0.00 | 0.00 | 0.00 | 76 | 1008.7 |
| 20260505014004 | 75 | 164 | 7.0 | 19.0 | 0.00 | 0.00 | 0.00 | 76 | 1008.8 |
| 20260505013902 | 75 | 147 | 8.0 | 19.0 | 0.00 | 0.00 | 0.00 | 76 | 1008.8 |
| 20260505013802 | 75 | 166 | 9.0 | 19.0 | 0.00 | 0.00 | 0.00 | 76 | 1008.7 |
| 20260505013703 | 75 | 164 | 9.0 | 19.0 | 0.00 | 0.00 | 0.00 | 76 | 1008.7 |
| 20260505013601 | 75 | 164 | 7.0 | 15.0 | 0.00 | 0.00 | 0.00 | 76 | 1008.7 |
| 20260505013504 | 75 | 186 | 5.0 | 15.0 | 0.00 | 0.00 | 0.00 | 76 | 1008.7 |
| 20260505013403 | 75 | 128 | 5.0 | 15.0 | 0.00 | 0.00 | 0.00 | 76 | 1008.7 |
| 20260505013303 | 75 | 168 | 5.0 | 15.0 | 0.00 | 0.00 | 0.00 | 76 | 1008.7 |
| 20260505013203 | 75 | 154 | 6.0 | 15.0 | 0.00 | 0.00 | 0.00 | 76 | 1008.7 |
| 20260505013102 | 75 | 224 | 6.0 | 15.0 | 0.00 | 0.00 | 0.00 | 76 | 1008.6 |
| 20260505013002 | 75 | 138 | 6.0 | 15.0 | 0.00 | 0.00 | 0.00 | 76 | 1008.7 |
| 20260505012902 | 75 | 171 | 4.0 | 15.0 | 0.00 | 0.00 | 0.00 | 76 | 1008.6 |
| 20260505012802 | 75 | 148 | 6.0 | 15.0 | 0.00 | 0.00 | 0.00 | 76 | 1008.6 |
| 20260505012703 | 75 | 162 | 9.0 | 15.0 | 0.00 | 0.00 | 0.00 | 76 | 1008.4 |
| 20260505012603 | 75 | 171 | 6.0 | 14.0 | 0.00 | 0.00 | 0.00 | 76 | 1008.5 |
| 20260505012504 | 75 | 137 | 6.0 | 13.0 | 0.00 | 0.00 | 0.00 | 76 | 1008.5 |
| 20260505012402 | 75 | 111 | 5.0 | 13.0 | 0.00 | 0.00 | 0.00 | 76 | 1008.6 |
| 20260505012304 | 75 | 154 | 4.0 | 13.0 | 0.00 | 0.00 | 0.00 | 76 | 1008.6 |
| 20260505012202 | 75 | 121 | 5.0 | 13.0 | 0.00 | 0.00 | 0.00 | 76 | 1008.6 |
| 20260505012103 | 75 | 79 | 5.0 | 13.0 | 0.00 | 0.00 | 0.00 | 76 | 1008.6 |
| 20260505012004 | 75 | 96 | 5.0 | 13.0 | 0.00 | 0.00 | 0.00 | 76 | 1008.6 |
| 20260505011903 | 75 | 107 | 5.0 | 13.0 | 0.00 | 0.00 | 0.00 | 76 | 1008.6 |
| 20260505011802 | 75 | 85 | 5.0 | 13.0 | 0.00 | 0.00 | 0.00 | 76 | 1008.7 |
| 20260505011702 | 75 | 97 | 5.0 | 13.0 | 0.00 | 0.00 | 0.00 | 76 | 1008.7 |
| 20260505011603 | 75 | 75 | 6.0 | 13.0 | 0.00 | 0.00 | 0.00 | 76 | 1008.8 |
| 20260505011504 | 75 | 83 | 7.0 | 13.0 | 0.00 | 0.00 | 0.00 | 76 | 1008.8 |
| 20260505011403 | 75 | 93 | 6.0 | 13.0 | 0.00 | 0.00 | 0.00 | 76 | 1008.8 |
| 20260505011303 | 75 | 78 | 6.0 | 12.0 | 0.00 | 0.00 | 0.00 | 76 | 1008.7 |
| 20260505011202 | 75 | 41 | 6.0 | 12.0 | 0.00 | 0.00 | 0.00 | 76 | 1008.8 |
| 20260505011103 | 75 | 65 | 6.0 | 11.0 | 0.00 | 0.00 | 0.00 | 76 | 1008.7 |
| 20260505011003 | 75 | 76 | 5.0 | 14.0 | 0.00 | 0.00 | 0.00 | 76 | 1008.7 |
| 20260505010902 | 75 | 123 | 4.0 | 14.0 | 0.00 | 0.00 | 0.00 | 76 | 1008.7 |
| 20260505010801 | 75 | 49 | 5.0 | 14.0 | 0.00 | 0.00 | 0.00 | 76 | 1008.7 |
| 20260505010702 | 75 | 103 | 5.0 | 14.0 | 0.00 | 0.00 | 0.00 | 76 | 1008.7 |
| 20260505010603 | 75 | 113 | 5.0 | 14.0 | 0.00 | 0.00 | 0.00 | 76 | 1008.6 |
| 20260505010502 | 75 | 94 | 6.0 | 14.0 | 0.00 | 0.00 | 0.00 | 75 | 1008.7 |
| 20260505010402 | 75 | 90 | 7.0 | 17.0 | 0.00 | 0.00 | 0.00 | 75 | 1008.7 |
| 20260505010303 | 75 | 71 | 7.0 | 17.0 | 0.00 | 0.00 | 0.00 | 75 | 1008.7 |
| 20260505010202 | 75 | 155 | 6.0 | 17.0 | 0.00 | 0.00 | 0.00 | 75 | 1008.7 |
| 20260505010103 | 75 | 135 | 6.0 | 17.0 | 0.00 | 0.00 | 0.00 | 75 | 1008.7 |
| 20260505010004 | 75 | 83 | 7.0 | 17.0 | 0.00 | 0.00 | 0.00 | 75 | 1008.7 |
| 20260505005902 | 75 | 120 | 7.0 | 17.0 | 0.00 | 0.00 | 0.00 | 75 | 1008.8 |
| 20260505005802 | 75 | 97 | 6.0 | 17.0 | 0.00 | 0.00 | 0.00 | 75 | 1008.7 |
| 20260505005702 | 75 | 100 | 5.0 | 17.0 | 0.00 | 0.00 | 0.00 | 75 | 1008.6 |
| 20260505005603 | 75 | 35 | 7.0 | 17.0 | 0.00 | 0.00 | 0.00 | 75 | 1008.6 |
| 20260505005502 | 75 | 103 | 7.0 | 17.0 | 0.00 | 0.00 | 0.00 | 75 | 1008.6 |
| 20260505005403 | 75 | 103 | 6.0 | 15.0 | 0.00 | 0.00 | 0.00 | 75 | 1008.6 |
| 20260505005303 | 75 | 71 | 6.0 | 15.0 | 0.00 | 0.00 | 0.00 | 75 | 1008.5 |
| 20260505005203 | 75 | 154 | 6.0 | 15.0 | 0.00 | 0.00 | 0.00 | 75 | 1008.6 |
| 20260505005104 | 75 | 186 | 7.0 | 15.0 | 0.00 | 0.00 | 0.00 | 75 | 1008.5 |
| 20260505005004 | 75 | 212 | 7.0 | 15.0 | 0.00 | 0.00 | 0.00 | 75 | 1008.6 |
| 20260505004902 | 75 | 172 | 7.0 | 12.0 | 0.00 | 0.00 | 0.00 | 75 | 1008.5 |
| 20260505004804 | 75 | 157 | 6.0 | 12.0 | 0.00 | 0.00 | 0.00 | 75 | 1008.6 |
| 20260505004702 | 75 | 154 | 4.0 | 11.0 | 0.00 | 0.00 | 0.00 | 75 | 1008.5 |
| 20260505004604 | 75 | 151 | 5.0 | 11.0 | 0.00 | 0.00 | 0.00 | 75 | 1008.5 |
| 20260505004503 | 75 | 173 | 6.0 | 11.0 | 0.00 | 0.00 | 0.00 | 75 | 1008.5 |
| 20260505004401 | 76 | 158 | 4.0 | 11.0 | 0.00 | 0.00 | 0.00 | 75 | 1008.4 |
| 20260505004302 | 75 | 172 | 4.0 | 14.0 | 0.00 | 0.00 | 0.00 | 75 | 1008.4 |
| 20260505004202 | 76 | 209 | 4.0 | 14.0 | 0.00 | 0.00 | 0.00 | 75 | 1008.4 |
| 20260505004102 | 76 | 173 | 4.0 | 18.0 | 0.00 | 0.00 | 0.00 | 75 | 1008.4 |
| 20260505004002 | 76 | 166 | 5.0 | 18.0 | 0.00 | 0.00 | 0.00 | 74 | 1008.4 |
| 20260505003903 | 76 | 233 | 5.0 | 18.0 | 0.00 | 0.00 | 0.00 | 75 | 1008.4 |
| 20260505003802 | 76 | 24 | 4.0 | 18.0 | 0.00 | 0.00 | 0.00 | 74 | 1008.4 |
| 20260505003703 | 76 | 131 | 4.0 | 18.0 | 0.00 | 0.00 | 0.00 | 74 | 1008.4 |
| 20260505003603 | 76 | 251 | 4.0 | 18.0 | 0.00 | 0.00 | 0.00 | 74 | 1008.4 |
| 20260505003504 | 76 | 214 | 5.0 | 18.0 | 0.00 | 0.00 | 0.00 | 74 | 1008.4 |
| 20260505003404 | 76 | 348 | 7.0 | 18.0 | 0.00 | 0.00 | 0.00 | 74 | 1008.4 |
| 20260505003302 | 76 | 151 | 8.0 | 18.0 | 0.00 | 0.00 | 0.00 | 74 | 1008.5 |
| 20260505003203 | 76 | 233 | 7.0 | 18.0 | 0.00 | 0.00 | 0.00 | 74 | 1008.5 |
| 20260505003102 | 76 | 152 | 5.0 | 16.0 | 0.00 | 0.00 | 0.00 | 74 | 1008.5 |
| 20260505003002 | 76 | 169 | 4.0 | 16.0 | 0.00 | 0.00 | 0.00 | 74 | 1008.4 |
| 20260505002903 | 76 | 75 | 7.0 | 16.0 | 0.00 | 0.00 | 0.00 | 73 | 1008.4 |
| 20260505002803 | 76 | 207 | 9.0 | 16.0 | 0.00 | 0.00 | 0.00 | 74 | 1008.5 |
| 20260505002701 | 76 | 200 | 8.0 | 16.0 | 0.00 | 0.00 | 0.00 | 74 | 1008.4 |
| 20260505002601 | 76 | 141 | 8.0 | 13.0 | 0.00 | 0.00 | 0.00 | 73 | 1008.5 |
| 20260505002504 | 76 | 106 | 7.0 | 13.0 | 0.00 | 0.00 | 0.00 | 73 | 1008.4 |
| 20260505002402 | 76 | 141 | 5.0 | 13.0 | 0.00 | 0.00 | 0.00 | 73 | 1008.4 |
| 20260505002303 | 76 | 188 | 4.0 | 14.0 | 0.00 | 0.00 | 0.00 | 73 | 1008.5 |
| 20260505002203 | 76 | 89 | 6.0 | 14.0 | 0.00 | 0.00 | 0.00 | 73 | 1008.5 |
| 20260505002102 | 76 | 180 | 7.0 | 14.0 | 0.00 | 0.00 | 0.00 | 73 | 1008.5 |
| 20260505002003 | 76 | 118 | 6.0 | 14.0 | 0.00 | 0.00 | 0.00 | 73 | 1008.6 |
| 20260505001904 | 76 | 151 | 6.0 | 14.0 | 0.00 | 0.00 | 0.00 | 73 | 1008.5 |
| 20260505001802 | 76 | 175 | 6.0 | 14.0 | 0.00 | 0.00 | 0.00 | 73 | 1008.6 |
| 20260505001703 | 76 | 186 | 8.0 | 14.0 | 0.00 | 0.00 | 0.00 | 73 | 1008.6 |
| 20260505001602 | 76 | 165 | 7.0 | 14.0 | 0.00 | 0.00 | 0.00 | 73 | 1008.5 |
| 20260505001505 | 76 | 128 | 8.0 | 14.0 | 0.00 | 0.00 | 0.00 | 73 | 1008.6 |
| 20260505001403 | 77 | 157 | 8.0 | 14.0 | 0.00 | 0.00 | 0.00 | 73 | 1008.5 |
| 20260505001301 | 77 | 203 | 7.0 | 14.0 | 0.00 | 0.00 | 0.00 | 73 | 1008.6 |
| 20260505001202 | 77 | 149 | 6.0 | 12.0 | 0.00 | 0.00 | 0.00 | 73 | 1008.5 |
| 20260505001102 | 77 | 161 | 6.0 | 12.0 | 0.00 | 0.00 | 0.00 | 73 | 1008.5 |
| 20260505001002 | 77 | 188 | 7.0 | 14.0 | 0.00 | 0.00 | 0.00 | 73 | 1008.6 |
| 20260505000901 | 77 | 207 | 6.0 | 15.0 | 0.00 | 0.00 | 0.00 | 73 | 1008.7 |
| 20260505000759 | 77 | 154 | 5.0 | 15.0 | 0.00 | 0.00 | 0.00 | 73 | 1008.6 |
| 20260505000657 | 77 | 149 | 4.0 | 15.0 | 0.00 | 0.00 | 0.00 | 73 | 1008.7 |
| 20260505000557 | 77 | 164 | 4.0 | 17.0 | 0.00 | 0.00 | 0.00 | 73 | 1008.7 |
| 20260505000456 | 77 | 206 | 7.0 | 17.0 | 0.00 | 0.00 | 0.00 | 73 | 1008.6 |
| 20260505000353 | 77 | 168 | 7.0 | 17.0 | 0.00 | 0.00 | 0.00 | 72 | 1008.6 |
| 20260505000250 | 77 | 147 | 6.0 | 17.0 | 0.00 | 0.00 | 0.00 | 72 | 1008.6 |
| 20260505000145 | 77 | 152 | 8.0 | 17.0 | 0.00 | 0.00 | 0.00 | 72 | 1008.6 |
| 20260505000045 | 77 | 75 | 8.0 | 17.0 | 0.00 | 0.00 | 0.00 | 72 | 1008.6 |
| 20260504235946 | 77 | 166 | 7.0 | 17.0 | 0.00 | 0.00 | 0.00 | 72 | 1008.6 |
| 20260504235845 | 77 | 169 | 7.0 | 17.0 | 0.00 | 0.00 | 0.00 | 72 | 1008.6 |
| 20260504235744 | 77 | 80 | 7.0 | 17.0 | 0.00 | 0.00 | 0.00 | 72 | 1008.5 |
| 20260504235645 | 77 | 213 | 6.0 | 17.0 | 0.00 | 0.00 | 0.00 | 72 | 1008.6 |
| 20260504235545 | 77 | 133 | 6.0 | 16.0 | 0.00 | 0.00 | 0.00 | 72 | 1008.5 |
| 20260504235446 | 77 | 141 | 6.0 | 16.0 | 0.00 | 0.00 | 0.00 | 72 | 1008.5 |